| time (UTC) | temp C | wind direction | speed KPH | gust KPH | rain 1hr cm | rain 24hr cm | rain mn cm | humidity % | barometer mb |
| 20260506113306 | 23 | 128 | 0.0 | 3.2 | 0.00 | 0.00 | 0.00 | 87 | 1008.2 |
| 20260506113150 | 23 | 128 | 0.0 | 3.2 | 0.00 | 0.00 | 0.00 | 87 | 1008.3 |
| 20260506113054 | 23 | 128 | 0.0 | 3.2 | 0.00 | 0.00 | 0.00 | 87 | 1008.3 |
| 20260506112957 | 23 | 128 | 0.0 | 1.6 | 0.00 | 0.00 | 0.00 | 86 | 1008.2 |
| 20260506112905 | 23 | 128 | 0.0 | 4.8 | 0.00 | 0.00 | 0.00 | 86 | 1008.2 |
| 20260506112749 | 23 | 128 | 0.0 | 4.8 | 0.00 | 0.00 | 0.00 | 86 | 1008.3 |
| 20260506112652 | 23 | 128 | 0.0 | 4.8 | 0.00 | 0.00 | 0.00 | 86 | 1008.3 |
| 20260506112556 | 23 | 128 | 0.0 | 4.8 | 0.00 | 0.00 | 0.00 | 86 | 1008.3 |
| 20260506112459 | 23 | 128 | 0.0 | 4.8 | 0.00 | 0.00 | 0.00 | 86 | 1008.2 |
| 20260506112401 | 23 | 128 | 0.0 | 4.8 | 0.00 | 0.00 | 0.00 | 86 | 1008.3 |
| 20260506112248 | 23 | 128 | 0.0 | 4.8 | 0.00 | 0.00 | 0.00 | 86 | 1008.3 |
| 20260506112212 | 23 | 128 | 1.6 | 4.8 | 0.00 | 0.00 | 0.00 | 86 | 1008.3 |
| 20260506112115 | 23 | 128 | 1.6 | 4.8 | 0.00 | 0.00 | 0.00 | 86 | 1008.2 |
| 20260506111951 | 23 | 128 | 1.6 | 4.8 | 0.00 | 0.00 | 0.00 | 86 | 1008.2 |
| 20260506111915 | 23 | 128 | 1.6 | 4.8 | 0.00 | 0.00 | 0.00 | 86 | 1008.2 |
| 20260506111757 | 23 | 128 | 1.6 | 9.7 | 0.00 | 0.00 | 0.00 | 86 | 1008.2 |
| 20260506111700 | 23 | 128 | 1.6 | 9.7 | 0.00 | 0.00 | 0.00 | 86 | 1008.3 |
| 20260506111548 | 23 | 128 | 0.0 | 9.7 | 0.00 | 0.00 | 0.00 | 86 | 1008.3 |
| 20260506111512 | 23 | 128 | 0.0 | 9.7 | 0.00 | 0.00 | 0.00 | 86 | 1008.3 |
| 20260506111354 | 23 | 128 | 0.0 | 9.7 | 0.00 | 0.00 | 0.00 | 86 | 1008.2 |
| 20260506111317 | 23 | 128 | 0.0 | 9.7 | 0.00 | 0.00 | 0.00 | 86 | 1008.2 |
| 20260506111200 | 23 | 128 | 1.6 | 9.7 | 0.00 | 0.00 | 0.00 | 86 | 1008.2 |
| 20260506111103 | 23 | 128 | 3.2 | 9.7 | 0.00 | 0.00 | 0.00 | 86 | 1008.2 |
| 20260506111007 | 23 | 128 | 3.2 | 9.7 | 0.00 | 0.00 | 0.00 | 86 | 1008.1 |
| 20260506110914 | 23 | 123 | 1.6 | 6.4 | 0.00 | 0.00 | 0.00 | 86 | 1008.2 |
| 20260506110757 | 23 | 123 | 1.6 | 6.4 | 0.00 | 0.00 | 0.00 | 86 | 1008.1 |
| 20260506110702 | 23 | 195 | 0.0 | 1.6 | 0.00 | 0.00 | 0.00 | 86 | 1008.2 |
| 20260506110624 | 23 | 195 | 0.0 | 3.2 | 0.00 | 0.00 | 0.00 | 86 | 1008.1 |
| 20260506110507 | 23 | 195 | 0.0 | 3.2 | 0.00 | 0.00 | 0.00 | 86 | 1008.1 |
| 20260506110352 | 23 | 195 | 0.0 | 3.2 | 0.00 | 0.00 | 0.00 | 86 | 1008.1 |
| 20260506110254 | 23 | 195 | 0.0 | 3.2 | 0.00 | 0.00 | 0.00 | 86 | 1008.1 |
| 20260506110202 | 23 | 195 | 0.0 | 3.2 | 0.00 | 0.00 | 0.00 | 86 | 1008.2 |
| 20260506110105 | 23 | 195 | 0.0 | 4.8 | 0.00 | 0.00 | 0.00 | 86 | 1008.1 |
| 20260506105949 | 23 | 195 | 0.0 | 4.8 | 0.00 | 0.00 | 0.00 | 86 | 1008.1 |
| 20260506105852 | 23 | 195 | 0.0 | 4.8 | 0.00 | 0.00 | 0.00 | 86 | 1008.1 |
| 20260506105754 | 23 | 195 | 1.6 | 4.8 | 0.00 | 0.00 | 0.00 | 86 | 1008.1 |
| 20260506105659 | 23 | 195 | 1.6 | 4.8 | 0.00 | 0.00 | 0.00 | 86 | 1008.0 |
| 20260506105606 | 23 | 196 | 1.6 | 4.8 | 0.00 | 0.00 | 0.00 | 86 | 1008.0 |
| 20260506105510 | 23 | 198 | 0.0 | 8.0 | 0.00 | 0.00 | 0.00 | 86 | 1008.1 |
| 20260506105352 | 23 | 198 | 1.6 | 9.7 | 0.00 | 0.00 | 0.00 | 86 | 1008.1 |
| 20260506105256 | 23 | 198 | 1.6 | 9.7 | 0.00 | 0.00 | 0.00 | 86 | 1008.0 |
| 20260506105158 | 23 | 198 | 0.0 | 9.7 | 0.00 | 0.00 | 0.00 | 86 | 1008.0 |
| 20260506105102 | 23 | 198 | 1.6 | 9.7 | 0.00 | 0.00 | 0.00 | 86 | 1008.0 |
| 20260506105004 | 23 | 198 | 1.6 | 9.7 | 0.00 | 0.00 | 0.00 | 86 | 1008.0 |
| 20260506104853 | 23 | 198 | 1.6 | 9.7 | 0.00 | 0.00 | 0.00 | 86 | 1008.1 |
| 20260506104756 | 23 | 198 | 3.2 | 9.7 | 0.00 | 0.00 | 0.00 | 86 | 1008.0 |
| 20260506104659 | 23 | 199 | 4.8 | 9.7 | 0.00 | 0.00 | 0.00 | 86 | 1008.0 |
| 20260506104603 | 23 | 192 | 4.8 | 9.7 | 0.00 | 0.00 | 0.00 | 86 | 1007.9 |
| 20260506104506 | 23 | 204 | 1.6 | 9.7 | 0.00 | 0.00 | 0.00 | 87 | 1007.9 |
| 20260506104350 | 23 | 202 | 0.0 | 11.3 | 0.00 | 0.00 | 0.00 | 87 | 1007.9 |
| 20260506104257 | 23 | 202 | 1.6 | 11.3 | 0.00 | 0.00 | 0.00 | 87 | 1007.9 |
| 20260506104222 | 23 | 202 | 1.6 | 11.3 | 0.00 | 0.00 | 0.00 | 87 | 1008.0 |
| 20260506104104 | 23 | 202 | 1.6 | 11.3 | 0.00 | 0.00 | 0.00 | 87 | 1007.9 |
| 20260506104028 | 23 | 202 | 4.8 | 11.3 | 0.00 | 0.00 | 0.00 | 87 | 1007.9 |
| 20260506103852 | 23 | 205 | 4.8 | 11.3 | 0.00 | 0.00 | 0.00 | 87 | 1007.9 |
| 20260506103755 | 23 | 215 | 4.8 | 12.9 | 0.00 | 0.00 | 0.00 | 87 | 1007.9 |
| 20260506103720 | 23 | 218 | 6.4 | 12.9 | 0.00 | 0.00 | 0.00 | 87 | 1007.9 |
| 20260506103605 | 23 | 202 | 6.4 | 14.5 | 0.00 | 0.00 | 0.00 | 87 | 1007.8 |
| 20260506103449 | 23 | 201 | 6.4 | 14.5 | 0.00 | 0.00 | 0.00 | 87 | 1007.8 |
| 20260506103413 | 23 | 198 | 6.4 | 14.5 | 0.00 | 0.00 | 0.00 | 87 | 1007.8 |
| 20260506103249 | 23 | 198 | 6.4 | 14.5 | 0.00 | 0.00 | 0.00 | 87 | 1007.8 |
| 20260506103213 | 23 | 227 | 6.4 | 14.5 | 0.00 | 0.00 | 0.00 | 87 | 1007.8 |
| 20260506103049 | 23 | 211 | 8.0 | 14.5 | 0.00 | 0.00 | 0.00 | 87 | 1007.7 |
| 20260506102957 | 23 | 221 | 8.0 | 14.5 | 0.00 | 0.00 | 0.00 | 87 | 1007.7 |
| 20260506102900 | 23 | 217 | 8.0 | 14.5 | 0.00 | 0.00 | 0.00 | 87 | 1007.7 |
| 20260506102804 | 23 | 174 | 8.0 | 14.5 | 0.00 | 0.00 | 0.00 | 87 | 1007.7 |
| 20260506102729 | 23 | 213 | 8.0 | 14.5 | 0.00 | 0.00 | 0.00 | 87 | 1007.7 |
| 20260506102550 | 23 | 202 | 4.8 | 14.5 | 0.00 | 0.00 | 0.00 | 87 | 1007.6 |
| 20260506102515 | 23 | 201 | 4.8 | 12.9 | 0.00 | 0.00 | 0.00 | 87 | 1007.6 |
| 20260506102351 | 23 | 204 | 6.4 | 12.9 | 0.00 | 0.00 | 0.00 | 87 | 1007.6 |
| 20260506102258 | 23 | 200 | 6.4 | 12.9 | 0.00 | 0.00 | 0.00 | 87 | 1007.5 |
| 20260506102202 | 23 | 204 | 6.4 | 14.5 | 0.00 | 0.00 | 0.00 | 87 | 1007.5 |
| 20260506102105 | 23 | 225 | 4.8 | 14.5 | 0.00 | 0.00 | 0.00 | 87 | 1007.6 |
| 20260506101948 | 23 | 192 | 4.8 | 16.1 | 0.00 | 0.00 | 0.00 | 87 | 1007.5 |
| 20260506101852 | 23 | 189 | 6.4 | 16.1 | 0.00 | 0.00 | 0.00 | 86 | 1007.5 |
| 20260506101815 | 23 | 211 | 8.0 | 16.1 | 0.00 | 0.00 | 0.00 | 87 | 1007.5 |
| 20260506101701 | 23 | 225 | 8.0 | 16.1 | 0.00 | 0.00 | 0.00 | 86 | 1007.5 |
| 20260506101605 | 23 | 201 | 8.0 | 16.1 | 0.00 | 0.00 | 0.00 | 86 | 1007.5 |
| 20260506101448 | 23 | 206 | 6.4 | 19.3 | 0.00 | 0.00 | 0.00 | 86 | 1007.4 |
| 20260506101351 | 23 | 221 | 8.0 | 19.3 | 0.00 | 0.00 | 0.00 | 86 | 1007.4 |
| 20260506101255 | 23 | 210 | 9.7 | 19.3 | 0.00 | 0.00 | 0.00 | 86 | 1007.4 |
| 20260506101219 | 23 | 240 | 11.3 | 22.5 | 0.00 | 0.00 | 0.00 | 86 | 1007.4 |
| 20260506101100 | 23 | 185 | 9.7 | 22.5 | 0.00 | 0.00 | 0.00 | 86 | 1007.4 |
| 20260506101004 | 23 | 186 | 9.7 | 22.5 | 0.00 | 0.00 | 0.00 | 86 | 1007.4 |
| 20260506100852 | 23 | 217 | 9.7 | 22.5 | 0.00 | 0.00 | 0.00 | 86 | 1007.4 |
| 20260506100755 | 23 | 200 | 11.3 | 22.5 | 0.00 | 0.00 | 0.00 | 86 | 1007.4 |
| 20260506100720 | 23 | 207 | 12.9 | 22.5 | 0.00 | 0.00 | 0.00 | 86 | 1007.4 |
| 20260506100602 | 23 | 223 | 12.9 | 22.5 | 0.00 | 0.00 | 0.00 | 86 | 1007.4 |
| 20260506100506 | 23 | 221 | 12.9 | 22.5 | 0.00 | 0.00 | 0.00 | 86 | 1007.3 |
| 20260506100429 | 23 | 188 | 11.3 | 22.5 | 0.00 | 0.00 | 0.00 | 86 | 1007.5 |
| 20260506100256 | 23 | 198 | 11.3 | 22.5 | 0.00 | 0.00 | 0.00 | 86 | 1007.4 |
| 20260506100159 | 23 | 212 | 11.3 | 22.5 | 0.00 | 0.00 | 0.00 | 86 | 1007.5 |
| 20260506100005 | 23 | 193 | 11.3 | 22.5 | 0.00 | 0.00 | 0.00 | 86 | 1007.5 |
| 20260506095850 | 23 | 231 | 9.7 | 22.5 | 0.00 | 0.00 | 0.00 | 86 | 1007.4 |
| 20260506095753 | 23 | 212 | 9.7 | 17.7 | 0.00 | 0.00 | 0.00 | 86 | 1007.4 |
| 20260506095701 | 23 | 215 | 9.7 | 17.7 | 0.00 | 0.00 | 0.00 | 86 | 1007.4 |
| 20260506095605 | 23 | 229 | 9.7 | 20.9 | 0.00 | 0.00 | 0.00 | 86 | 1007.4 |
| 20260506095510 | 23 | 187 | 9.7 | 20.9 | 0.00 | 0.00 | 0.00 | 86 | 1007.3 |
| 20260506095352 | 23 | 206 | 9.7 | 20.9 | 0.00 | 0.00 | 0.00 | 86 | 1007.3 |
| 20260506095256 | 23 | 205 | 9.7 | 20.9 | 0.00 | 0.00 | 0.00 | 86 | 1007.3 |
| 20260506095218 | 23 | 201 | 8.0 | 20.9 | 0.00 | 0.00 | 0.00 | 86 | 1007.2 |
| 20260506095101 | 23 | 204 | 9.7 | 20.9 | 0.00 | 0.00 | 0.00 | 86 | 1007.3 |
| 20260506094949 | 23 | 192 | 11.3 | 20.9 | 0.00 | 0.00 | 0.00 | 86 | 1007.3 |
| 20260506094854 | 23 | 182 | 11.3 | 24.1 | 0.00 | 0.00 | 0.00 | 86 | 1007.3 |
| 20260506094758 | 23 | 215 | 12.9 | 24.1 | 0.00 | 0.00 | 0.00 | 86 | 1007.2 |
| 20260506094702 | 23 | 228 | 12.9 | 24.1 | 0.00 | 0.00 | 0.00 | 86 | 1007.3 |
| 20260506094606 | 23 | 180 | 11.3 | 24.1 | 0.00 | 0.00 | 0.00 | 86 | 1007.3 |
| 20260506094452 | 23 | 215 | 9.7 | 24.1 | 0.00 | 0.00 | 0.00 | 86 | 1007.3 |
| 20260506094355 | 23 | 186 | 11.3 | 24.1 | 0.00 | 0.00 | 0.00 | 86 | 1007.3 |
| 20260506094259 | 23 | 200 | 11.3 | 24.1 | 0.00 | 0.00 | 0.00 | 86 | 1007.2 |
| 20260506094203 | 23 | 188 | 11.3 | 24.1 | 0.00 | 0.00 | 0.00 | 86 | 1007.2 |
| 20260506094106 | 23 | 185 | 8.0 | 24.1 | 0.00 | 0.00 | 0.00 | 86 | 1007.3 |
| 20260506093951 | 23 | 205 | 8.0 | 16.1 | 0.00 | 0.00 | 0.00 | 86 | 1007.3 |
| 20260506093854 | 23 | 229 | 8.0 | 16.1 | 0.00 | 0.00 | 0.00 | 86 | 1007.2 |
| 20260506093801 | 23 | 214 | 8.0 | 17.7 | 0.00 | 0.00 | 0.00 | 86 | 1007.2 |
| 20260506093706 | 23 | 217 | 8.0 | 17.7 | 0.00 | 0.00 | 0.00 | 86 | 1007.1 |
| 20260506093629 | 23 | 193 | 9.7 | 17.7 | 0.00 | 0.00 | 0.00 | 86 | 1007.2 |
| 20260506093511 | 23 | 205 | 9.7 | 17.7 | 0.00 | 0.00 | 0.00 | 86 | 1007.1 |
| 20260506093353 | 23 | 195 | 8.0 | 17.7 | 0.00 | 0.00 | 0.00 | 86 | 1007.1 |
| 20260506093256 | 23 | 215 | 9.7 | 17.7 | 0.00 | 0.00 | 0.00 | 86 | 1007.2 |
| 20260506093200 | 23 | 184 | 9.7 | 17.7 | 0.00 | 0.00 | 0.00 | 86 | 1007.1 |
| 20260506093107 | 23 | 219 | 11.3 | 17.7 | 0.00 | 0.00 | 0.00 | 86 | 1007.0 |
| 20260506092950 | 23 | 198 | 9.7 | 17.7 | 0.00 | 0.00 | 0.00 | 86 | 1007.1 |
| 20260506092854 | 23 | 218 | 9.7 | 17.7 | 0.00 | 0.00 | 0.00 | 86 | 1007.1 |
| 20260506092817 | 23 | 209 | 9.7 | 17.7 | 0.00 | 0.00 | 0.00 | 86 | 1007.0 |
| 20260506092659 | 23 | 196 | 9.7 | 19.3 | 0.00 | 0.00 | 0.00 | 86 | 1007.0 |
| 20260506092603 | 23 | 238 | 9.7 | 19.3 | 0.00 | 0.00 | 0.00 | 86 | 1007.1 |
| 20260506092526 | 23 | 204 | 9.7 | 20.9 | 0.00 | 0.00 | 0.00 | 86 | 1007.0 |
| 20260506092413 | 23 | 209 | 9.7 | 22.5 | 0.00 | 0.00 | 0.00 | 86 | 1007.0 |
| 20260506092249 | 23 | 207 | 9.7 | 22.5 | 0.00 | 0.00 | 0.00 | 86 | 1007.0 |
| 20260506092213 | 23 | 215 | 9.7 | 22.5 | 0.00 | 0.00 | 0.00 | 86 | 1007.0 |
| 20260506092049 | 23 | 209 | 11.3 | 22.5 | 0.00 | 0.00 | 0.00 | 86 | 1007.0 |
| 20260506091953 | 23 | 211 | 11.3 | 22.5 | 0.00 | 0.00 | 0.00 | 86 | 1007.0 |
| 20260506091857 | 23 | 221 | 11.3 | 22.5 | 0.00 | 0.00 | 0.00 | 86 | 1007.0 |
| 20260506091804 | 23 | 174 | 11.3 | 22.5 | 0.00 | 0.00 | 0.00 | 86 | 1007.0 |
| 20260506091648 | 23 | 191 | 12.9 | 22.5 | 0.00 | 0.00 | 0.00 | 86 | 1007.0 |
| 20260506091612 | 23 | 204 | 12.9 | 22.5 | 0.00 | 0.00 | 0.00 | 86 | 1007.0 |
| 20260506091454 | 23 | 192 | 12.9 | 20.9 | 0.00 | 0.00 | 0.00 | 86 | 1007.0 |
| 20260506091358 | 23 | 228 | 9.7 | 20.9 | 0.00 | 0.00 | 0.00 | 86 | 1007.0 |
| 20260506091301 | 23 | 214 | 11.3 | 20.9 | 0.00 | 0.00 | 0.00 | 86 | 1007.0 |
| 20260506091149 | 23 | 171 | 11.3 | 20.9 | 0.00 | 0.00 | 0.00 | 86 | 1007.0 |
| 20260506091052 | 23 | 184 | 11.3 | 22.5 | 0.00 | 0.00 | 0.00 | 86 | 1007.0 |
| 20260506090956 | 23 | 192 | 9.7 | 20.9 | 0.00 | 0.00 | 0.00 | 86 | 1006.9 |
| 20260506090858 | 23 | 219 | 8.0 | 20.9 | 0.00 | 0.00 | 0.00 | 86 | 1006.8 |
| 20260506090801 | 23 | 207 | 8.0 | 20.9 | 0.00 | 0.00 | 0.00 | 86 | 1006.9 |
| 20260506090706 | 23 | 190 | 8.0 | 20.9 | 0.00 | 0.00 | 0.00 | 86 | 1006.9 |
| 20260506090628 | 23 | 173 | 9.7 | 20.9 | 0.00 | 0.00 | 0.00 | 86 | 1006.9 |
| 20260506090455 | 23 | 186 | 11.3 | 20.9 | 0.00 | 0.00 | 0.00 | 86 | 1006.8 |
| 20260506090359 | 23 | 223 | 11.3 | 20.9 | 0.00 | 0.00 | 0.00 | 86 | 1006.9 |
| 20260506090323 | 23 | 225 | 11.3 | 22.5 | 0.00 | 0.00 | 0.00 | 86 | 1006.9 |
| 20260506090205 | 23 | 220 | 11.3 | 22.5 | 0.00 | 0.00 | 0.00 | 86 | 1006.8 |
| 20260506090050 | 23 | 211 | 11.3 | 22.5 | 0.00 | 0.00 | 0.00 | 86 | 1006.9 |
| 20260506085953 | 23 | 175 | 11.3 | 22.5 | 0.00 | 0.00 | 0.00 | 86 | 1006.9 |
| 20260506085856 | 23 | 198 | 12.9 | 22.5 | 0.00 | 0.00 | 0.00 | 86 | 1006.8 |
| 20260506085824 | 23 | 196 | 11.3 | 22.5 | 0.00 | 0.00 | 0.00 | 86 | 1006.9 |
| 20260506085707 | 23 | 207 | 9.7 | 22.5 | 0.00 | 0.00 | 0.00 | 86 | 1006.9 |
| 20260506085550 | 23 | 178 | 11.3 | 22.5 | 0.00 | 0.00 | 0.00 | 86 | 1007.0 |
| 20260506085453 | 23 | 184 | 12.9 | 22.5 | 0.00 | 0.00 | 0.00 | 86 | 1006.9 |
| 20260506085356 | 23 | 205 | 12.9 | 22.5 | 0.00 | 0.00 | 0.00 | 86 | 1006.9 |
| 20260506085300 | 23 | 178 | 11.3 | 22.5 | 0.00 | 0.00 | 0.00 | 86 | 1006.9 |
| 20260506085203 | 23 | 198 | 9.7 | 22.5 | 0.00 | 0.00 | 0.00 | 86 | 1006.8 |
| 20260506085051 | 23 | 215 | 11.3 | 22.5 | 0.00 | 0.00 | 0.00 | 86 | 1006.8 |
| 20260506084955 | 23 | 217 | 11.3 | 20.9 | 0.00 | 0.00 | 0.00 | 86 | 1006.9 |
| 20260506084857 | 23 | 202 | 11.3 | 19.3 | 0.00 | 0.00 | 0.00 | 86 | 1006.9 |
| 20260506084801 | 23 | 221 | 9.7 | 17.7 | 0.00 | 0.00 | 0.00 | 86 | 1006.8 |
| 20260506084704 | 23 | 180 | 12.9 | 17.7 | 0.00 | 0.00 | 0.00 | 86 | 1006.8 |
| 20260506084548 | 23 | 231 | 12.9 | 19.3 | 0.00 | 0.00 | 0.00 | 86 | 1006.8 |
| 20260506084455 | 23 | 221 | 9.7 | 19.3 | 0.00 | 0.00 | 0.00 | 86 | 1006.8 |
| 20260506084359 | 23 | 184 | 8.0 | 17.7 | 0.00 | 0.00 | 0.00 | 86 | 1006.7 |
| 20260506084303 | 23 | 220 | 8.0 | 17.7 | 0.00 | 0.00 | 0.00 | 86 | 1006.8 |
| 20260506084206 | 23 | 201 | 8.0 | 17.7 | 0.00 | 0.00 | 0.00 | 86 | 1006.9 |
| 20260506084050 | 23 | 227 | 8.0 | 17.7 | 0.00 | 0.00 | 0.00 | 86 | 1006.9 |
| 20260506084013 | 23 | 168 | 8.0 | 17.7 | 0.00 | 0.00 | 0.00 | 86 | 1006.9 |
| 20260506083900 | 23 | 197 | 8.0 | 17.7 | 0.00 | 0.00 | 0.00 | 86 | 1007.0 |
| 20260506083805 | 23 | 200 | 9.7 | 17.7 | 0.00 | 0.00 | 0.00 | 86 | 1007.0 |
| 20260506083648 | 23 | 184 | 9.7 | 19.3 | 0.00 | 0.00 | 0.00 | 86 | 1007.0 |
| 20260506083552 | 23 | 199 | 8.0 | 19.3 | 0.00 | 0.00 | 0.00 | 86 | 1007.0 |
| 20260506083515 | 23 | 213 | 8.0 | 25.7 | 0.00 | 0.00 | 0.00 | 86 | 1006.9 |
| 20260506083357 | 23 | 205 | 8.0 | 25.7 | 0.00 | 0.00 | 0.00 | 86 | 1006.9 |
| 20260506083301 | 23 | 193 | 8.0 | 25.7 | 0.00 | 0.00 | 0.00 | 86 | 1006.9 |
| 20260506083228 | 23 | 193 | 9.7 | 25.7 | 0.00 | 0.00 | 0.00 | 86 | 1006.8 |
| 20260506083111 | 23 | 215 | 9.7 | 25.7 | 0.00 | 0.00 | 0.00 | 86 | 1007.0 |
| 20260506083013 | 23 | 188 | 9.7 | 25.7 | 0.00 | 0.00 | 0.00 | 86 | 1006.9 |
| 20260506082856 | 23 | 197 | 12.9 | 25.7 | 0.00 | 0.00 | 0.00 | 86 | 1006.8 |
| 20260506082759 | 23 | 222 | 14.5 | 25.7 | 0.00 | 0.00 | 0.00 | 86 | 1006.8 |
| 20260506082703 | 23 | 207 | 12.9 | 25.7 | 0.00 | 0.00 | 0.00 | 86 | 1006.7 |
| 20260506082606 | 23 | 226 | 11.3 | 25.7 | 0.00 | 0.00 | 0.00 | 86 | 1006.8 |
| 20260506082454 | 23 | 184 | 12.9 | 25.7 | 0.00 | 0.00 | 0.00 | 86 | 1006.9 |
| 20260506082417 | 23 | 193 | 12.9 | 25.7 | 0.00 | 0.00 | 0.00 | 86 | 1006.8 |
| 20260506082300 | 23 | 209 | 9.7 | 25.7 | 0.00 | 0.00 | 0.00 | 86 | 1006.9 |
| 20260506082203 | 23 | 218 | 11.3 | 25.7 | 0.00 | 0.00 | 0.00 | 86 | 1006.9 |
| 20260506082107 | 23 | 175 | 11.3 | 25.7 | 0.00 | 0.00 | 0.00 | 86 | 1006.9 |
| 20260506081952 | 23 | 172 | 11.3 | 25.7 | 0.00 | 0.00 | 0.00 | 86 | 1006.9 |
| 20260506081855 | 23 | 167 | 12.9 | 25.7 | 0.00 | 0.00 | 0.00 | 86 | 1006.9 |
| 20260506081823 | 23 | 207 | 11.3 | 22.5 | 0.00 | 0.00 | 0.00 | 86 | 1007.0 |
| 20260506081704 | 23 | 175 | 8.0 | 19.3 | 0.00 | 0.00 | 0.00 | 86 | 1006.9 |
| 20260506081549 | 23 | 194 | 8.0 | 29.0 | 0.00 | 0.00 | 0.00 | 86 | 1006.9 |
| 20260506081512 | 23 | 195 | 9.7 | 29.0 | 0.00 | 0.00 | 0.00 | 86 | 1006.9 |
| 20260506081435 | 23 | 196 | 8.0 | 29.0 | 0.00 | 0.00 | 0.00 | 86 | 1006.9 |
| 20260506081251 | 23 | 175 | 8.0 | 29.0 | 0.00 | 0.00 | 0.00 | 86 | 1007.0 |
| 20260506081155 | 23 | 180 | 8.0 | 29.0 | 0.00 | 0.00 | 0.00 | 86 | 1007.0 |
| 20260506081102 | 23 | 200 | 9.7 | 29.0 | 0.00 | 0.00 | 0.00 | 86 | 1007.0 |
| 20260506081006 | 23 | 180 | 9.7 | 29.0 | 0.00 | 0.00 | 0.00 | 86 | 1006.9 |
| 20260506080910 | 23 | 202 | 11.3 | 29.0 | 0.00 | 0.00 | 0.00 | 86 | 1007.0 |
| 20260506080753 | 23 | 186 | 11.3 | 27.4 | 0.00 | 0.00 | 0.00 | 86 | 1007.0 |
| 20260506080658 | 23 | 213 | 8.0 | 24.1 | 0.00 | 0.00 | 0.00 | 86 | 1007.0 |
| 20260506080600 | 23 | 194 | 9.7 | 24.1 | 0.00 | 0.00 | 0.00 | 86 | 1007.0 |
| 20260506080448 | 23 | 193 | 9.7 | 24.1 | 0.00 | 0.00 | 0.00 | 86 | 1006.9 |
| 20260506080352 | 23 | 202 | 8.0 | 25.7 | 0.00 | 0.00 | 0.00 | 86 | 1006.9 |
| 20260506080255 | 23 | 196 | 9.7 | 25.7 | 0.00 | 0.00 | 0.00 | 86 | 1007.0 |
| 20260506080217 | 23 | 204 | 8.0 | 25.7 | 0.00 | 0.00 | 0.00 | 86 | 1007.0 |
| 20260506073513 | 23 | 207 | 14.5 | 24.1 | 0.00 | 0.00 | 0.00 | 86 | 1007.2 |
| 20260506073349 | 23 | 200 | 12.9 | 24.1 | 0.00 | 0.00 | 0.00 | 86 | 1007.3 |
| 20260506073253 | 23 | 212 | 11.3 | 25.7 | 0.00 | 0.00 | 0.00 | 86 | 1007.3 |
| 20260506073156 | 23 | 217 | 11.3 | 24.1 | 0.00 | 0.00 | 0.00 | 86 | 1007.3 |
| 20260506073100 | 23 | 182 | 12.9 | 24.1 | 0.00 | 0.00 | 0.00 | 86 | 1007.3 |
| 20260506073003 | 23 | 184 | 11.3 | 24.1 | 0.00 | 0.00 | 0.00 | 86 | 1007.4 |
| 20260506072852 | 23 | 210 | 9.7 | 24.1 | 0.00 | 0.00 | 0.00 | 86 | 1007.4 |
| 20260506072755 | 23 | 200 | 11.3 | 24.1 | 0.00 | 0.00 | 0.00 | 86 | 1007.4 |
| 20260506072718 | 23 | 240 | 12.9 | 24.1 | 0.00 | 0.00 | 0.00 | 86 | 1007.5 |
| 20260506072620 | 23 | 208 | 12.9 | 32.2 | 0.00 | 0.00 | 0.00 | 86 | 1007.4 |
| 20260506072502 | 23 | 208 | 11.3 | 32.2 | 0.00 | 0.00 | 0.00 | 86 | 1007.4 |
| 20260506072406 | 23 | 208 | 11.3 | 32.2 | 0.00 | 0.00 | 0.00 | 86 | 1007.4 |
| 20260506072254 | 23 | 194 | 11.3 | 32.2 | 0.00 | 0.00 | 0.00 | 86 | 1007.5 |
| 20260506072158 | 23 | 190 | 9.7 | 32.2 | 0.00 | 0.00 | 0.00 | 86 | 1007.4 |
| 20260506072122 | 23 | 182 | 8.0 | 32.2 | 0.00 | 0.00 | 0.00 | 86 | 1007.5 |
| 20260506072004 | 23 | 198 | 11.3 | 32.2 | 0.00 | 0.00 | 0.00 | 86 | 1007.4 |
| 20260506071908 | 23 | 213 | 14.5 | 32.2 | 0.00 | 0.00 | 0.00 | 86 | 1007.4 |
| 20260506071811 | 23 | 213 | 14.5 | 32.2 | 0.00 | 0.00 | 0.00 | 85 | 1007.4 |
| 20260506071653 | 23 | 233 | 12.9 | 29.0 | 0.00 | 0.00 | 0.00 | 85 | 1007.4 |
| 20260506071601 | 23 | 175 | 14.5 | 29.0 | 0.00 | 0.00 | 0.00 | 85 | 1007.5 |
| 20260506071505 | 23 | 223 | 14.5 | 29.0 | 0.00 | 0.00 | 0.00 | 85 | 1007.5 |
| 20260506071349 | 23 | 208 | 12.9 | 29.0 | 0.00 | 0.00 | 0.00 | 85 | 1007.5 |
| 20260506071251 | 23 | 205 | 12.9 | 29.0 | 0.00 | 0.00 | 0.00 | 85 | 1007.5 |
| 20260506071215 | 23 | 197 | 11.3 | 29.0 | 0.00 | 0.00 | 0.00 | 85 | 1007.5 |
| 20260506071057 | 23 | 196 | 11.3 | 29.0 | 0.00 | 0.00 | 0.00 | 85 | 1007.5 |
| 20260506071001 | 23 | 200 | 11.3 | 27.4 | 0.00 | 0.00 | 0.00 | 85 | 1007.5 |
| 20260506070909 | 23 | 193 | 9.7 | 27.4 | 0.00 | 0.00 | 0.00 | 85 | 1007.5 |
| 20260506070811 | 23 | 195 | 9.7 | 27.4 | 0.00 | 0.00 | 0.00 | 85 | 1007.5 |
| 20260506070654 | 23 | 182 | 14.5 | 27.4 | 0.00 | 0.00 | 0.00 | 85 | 1007.5 |
| 20260506070556 | 23 | 209 | 14.5 | 27.4 | 0.00 | 0.00 | 0.00 | 85 | 1007.5 |
| 20260506070459 | 23 | 194 | 11.3 | 25.7 | 0.00 | 0.00 | 0.00 | 85 | 1007.5 |
| 20260506070403 | 23 | 221 | 9.7 | 27.4 | 0.00 | 0.00 | 0.00 | 85 | 1007.6 |
| 20260506070250 | 23 | 200 | 9.7 | 27.4 | 0.00 | 0.00 | 0.00 | 85 | 1007.6 |
| 20260506070214 | 23 | 176 | 11.3 | 32.2 | 0.00 | 0.00 | 0.00 | 85 | 1007.6 |
| 20260506062348 | 23 | 193 | 16.1 | 38.6 | 0.00 | 0.00 | 0.00 | 85 | 1007.5 |
| 20260506062311 | 23 | 205 | 14.5 | 33.8 | 0.00 | 0.00 | 0.00 | 85 | 1007.5 |
| 20260506062153 | 23 | 192 | 12.9 | 33.8 | 0.00 | 0.00 | 0.00 | 85 | 1007.4 |
| 20260506062102 | 23 | 204 | 12.9 | 33.8 | 0.00 | 0.00 | 0.00 | 85 | 1007.5 |
| 20260506062005 | 23 | 189 | 11.3 | 33.8 | 0.00 | 0.00 | 0.00 | 85 | 1007.4 |
| 20260506061849 | 23 | 171 | 12.9 | 33.8 | 0.00 | 0.00 | 0.00 | 85 | 1007.5 |
| 20260506061813 | 23 | 171 | 12.9 | 33.8 | 0.00 | 0.00 | 0.00 | 85 | 1007.5 |
| 20260506061649 | 23 | 163 | 11.3 | 24.1 | 0.00 | 0.00 | 0.00 | 85 | 1007.6 |
| 20260506061612 | 23 | 225 | 9.7 | 24.1 | 0.00 | 0.00 | 0.00 | 85 | 1007.6 |
| 20260506061455 | 23 | 219 | 8.0 | 37.0 | 0.00 | 0.00 | 0.00 | 85 | 1007.5 |
| 20260506061403 | 23 | 153 | 8.0 | 37.0 | 0.00 | 0.00 | 0.00 | 85 | 1007.5 |
| 20260506061249 | 23 | 182 | 8.0 | 37.0 | 0.00 | 0.00 | 0.00 | 85 | 1007.5 |
| 20260506061151 | 23 | 198 | 9.7 | 37.0 | 0.00 | 0.00 | 0.00 | 85 | 1007.5 |
| 20260506061055 | 23 | 210 | 12.9 | 37.0 | 0.00 | 0.00 | 0.00 | 85 | 1007.5 |
| 20260506060958 | 23 | 192 | 12.9 | 37.0 | 0.00 | 0.00 | 0.00 | 85 | 1007.4 |
| 20260506060902 | 23 | 205 | 11.3 | 37.0 | 0.00 | 0.00 | 0.00 | 85 | 1007.4 |
| 20260506060750 | 23 | 221 | 16.1 | 37.0 | 0.00 | 0.00 | 0.00 | 85 | 1007.4 |
| 20260506060714 | 23 | 190 | 17.7 | 37.0 | 0.00 | 0.00 | 0.00 | 85 | 1007.4 |
| 20260506060555 | 23 | 223 | 16.1 | 35.4 | 0.00 | 0.00 | 0.00 | 85 | 1007.4 |
| 20260506060457 | 23 | 189 | 14.5 | 25.7 | 0.00 | 0.00 | 0.00 | 85 | 1007.4 |
| 20260506060421 | 23 | 219 | 11.3 | 25.7 | 0.00 | 0.00 | 0.00 | 85 | 1007.4 |
| 20260506060323 | 23 | 211 | 9.7 | 22.5 | 0.00 | 0.00 | 0.00 | 85 | 1007.4 |
| 20260506060206 | 23 | 182 | 9.7 | 27.4 | 0.00 | 0.00 | 0.00 | 85 | 1007.3 |
| 20260506051410 | 23 | 187 | 8.0 | 24.1 | 0.00 | 0.00 | 0.00 | 84 | 1007.6 |
| 20260506051312 | 23 | 190 | 8.0 | 24.1 | 0.00 | 0.00 | 0.00 | 84 | 1007.6 |
| 20260506051155 | 23 | 155 | 11.3 | 24.1 | 0.00 | 0.00 | 0.00 | 84 | 1007.6 |
| 20260506051059 | 23 | 206 | 11.3 | 24.1 | 0.00 | 0.00 | 0.00 | 84 | 1007.6 |
| 20260506051002 | 23 | 194 | 11.3 | 24.1 | 0.00 | 0.00 | 0.00 | 84 | 1007.6 |
| 20260506050906 | 23 | 203 | 9.7 | 24.1 | 0.00 | 0.00 | 0.00 | 84 | 1007.6 |
| 20260506050753 | 23 | 215 | 9.7 | 24.1 | 0.00 | 0.00 | 0.00 | 84 | 1007.6 |
| 20260506050657 | 23 | 171 | 12.9 | 24.1 | 0.00 | 0.00 | 0.00 | 84 | 1007.6 |
| 20260506050559 | 23 | 167 | 12.9 | 35.4 | 0.00 | 0.00 | 0.00 | 84 | 1007.6 |
| 20260506050504 | 23 | 186 | 11.3 | 35.4 | 0.00 | 0.00 | 0.00 | 83 | 1007.5 |
| 20260506050409 | 23 | 163 | 12.9 | 35.4 | 0.00 | 0.00 | 0.00 | 83 | 1007.6 |
| 20260506050252 | 23 | 188 | 12.9 | 35.4 | 0.00 | 0.00 | 0.00 | 83 | 1007.6 |
| 20260506050157 | 23 | 189 | 11.3 | 35.4 | 0.00 | 0.00 | 0.00 | 83 | 1007.6 |
| 20260506045128 | 23 | 189 | 14.5 | 35.4 | 0.00 | 0.00 | 0.00 | 83 | 1007.6 |
| 20260506044950 | 23 | 189 | 11.3 | 35.4 | 0.00 | 0.00 | 0.00 | 83 | 1007.5 |
| 20260506044855 | 23 | 217 | 12.9 | 35.4 | 0.00 | 0.00 | 0.00 | 83 | 1007.5 |
| 20260506044818 | 23 | 180 | 12.9 | 35.4 | 0.00 | 0.00 | 0.00 | 83 | 1007.5 |
| 20260506044704 | 23 | 207 | 12.9 | 35.4 | 0.00 | 0.00 | 0.00 | 83 | 1007.5 |
| 20260506044548 | 23 | 182 | 11.3 | 35.4 | 0.00 | 0.00 | 0.00 | 83 | 1007.5 |
| 20260506044451 | 23 | 200 | 16.1 | 35.4 | 0.00 | 0.00 | 0.00 | 83 | 1007.5 |
| 20260506044355 | 23 | 180 | 17.7 | 35.4 | 0.00 | 0.00 | 0.00 | 83 | 1007.5 |
| 20260506044258 | 23 | 236 | 17.7 | 35.4 | 0.00 | 0.00 | 0.00 | 83 | 1007.5 |
| 20260506044202 | 23 | 180 | 19.3 | 35.4 | 0.00 | 0.00 | 0.00 | 83 | 1007.5 |
| 20260506044109 | 23 | 224 | 16.1 | 37.0 | 0.00 | 0.00 | 0.00 | 83 | 1007.5 |
| 20260506043952 | 23 | 172 | 16.1 | 30.6 | 0.00 | 0.00 | 0.00 | 83 | 1007.5 |
| 20260506043915 | 23 | 196 | 14.5 | 29.0 | 0.00 | 0.00 | 0.00 | 83 | 1007.5 |
| 20260506043758 | 23 | 183 | 14.5 | 29.0 | 0.00 | 0.00 | 0.00 | 83 | 1007.6 |
| 20260506043723 | 23 | 209 | 12.9 | 29.0 | 0.00 | 0.00 | 0.00 | 84 | 1007.6 |
| 20260506043625 | 23 | 215 | 16.1 | 29.0 | 0.00 | 0.00 | 0.00 | 83 | 1007.5 |
| 20260506043527 | 24 | 190 | 16.1 | 29.0 | 0.00 | 0.00 | 0.00 | 84 | 1007.6 |
| 20260506043350 | 23 | 164 | 9.7 | 25.7 | 0.00 | 0.00 | 0.00 | 84 | 1007.6 |
| 20260506043317 | 24 | 161 | 8.0 | 22.5 | 0.00 | 0.00 | 0.00 | 84 | 1007.6 |
| 20260506043200 | 24 | 203 | 11.3 | 22.5 | 0.00 | 0.00 | 0.00 | 84 | 1007.7 |
| 20260506043104 | 24 | 174 | 9.7 | 22.5 | 0.00 | 0.00 | 0.00 | 84 | 1007.7 |
| 20260506043007 | 24 | 163 | 9.7 | 22.5 | 0.00 | 0.00 | 0.00 | 84 | 1007.7 |
| 20260506042851 | 24 | 189 | 9.7 | 22.5 | 0.00 | 0.00 | 0.00 | 84 | 1007.7 |
| 20260506042754 | 24 | 159 | 9.7 | 22.5 | 0.00 | 0.00 | 0.00 | 84 | 1007.7 |
| 20260506042703 | 24 | 175 | 9.7 | 22.5 | 0.00 | 0.00 | 0.00 | 84 | 1007.7 |
| 20260506042606 | 24 | 160 | 11.3 | 22.5 | 0.00 | 0.00 | 0.00 | 84 | 1007.6 |
| 20260506042450 | 24 | 178 | 11.3 | 27.4 | 0.00 | 0.00 | 0.00 | 84 | 1007.6 |
| 20260506042413 | 24 | 184 | 11.3 | 27.4 | 0.00 | 0.00 | 0.00 | 84 | 1007.6 |
| 20260506042249 | 24 | 155 | 8.0 | 27.4 | 0.00 | 0.00 | 0.00 | 84 | 1007.6 |
| 20260506042153 | 24 | 195 | 9.7 | 27.4 | 0.00 | 0.00 | 0.00 | 84 | 1007.6 |
| 20260506042116 | 24 | 180 | 9.7 | 27.4 | 0.00 | 0.00 | 0.00 | 84 | 1007.5 |
| 20260506042003 | 24 | 181 | 11.3 | 27.4 | 0.00 | 0.00 | 0.00 | 84 | 1007.6 |
| 20260506041907 | 24 | 159 | 12.9 | 27.4 | 0.00 | 0.00 | 0.00 | 84 | 1007.6 |
| 20260506041751 | 24 | 192 | 12.9 | 27.4 | 0.00 | 0.00 | 0.00 | 84 | 1007.5 |
| 20260506041655 | 24 | 166 | 12.9 | 27.4 | 0.00 | 0.00 | 0.00 | 84 | 1007.5 |
| 20260506041556 | 24 | 173 | 12.9 | 30.6 | 0.00 | 0.00 | 0.00 | 84 | 1007.5 |
| 20260506041500 | 24 | 192 | 12.9 | 30.6 | 0.00 | 0.00 | 0.00 | 84 | 1007.5 |
| 20260506041407 | 24 | 185 | 12.9 | 30.6 | 0.00 | 0.00 | 0.00 | 84 | 1007.5 |
| 20260506041251 | 24 | 153 | 12.9 | 27.4 | 0.00 | 0.00 | 0.00 | 84 | 1007.5 |
| 20260506041154 | 24 | 162 | 11.3 | 22.5 | 0.00 | 0.00 | 0.00 | 84 | 1007.5 |
| 20260506041058 | 24 | 188 | 9.7 | 22.5 | 0.00 | 0.00 | 0.00 | 84 | 1007.5 |
| 20260506041000 | 24 | 169 | 9.7 | 25.7 | 0.00 | 0.00 | 0.00 | 84 | 1007.5 |
| 20260506040904 | 24 | 174 | 8.0 | 25.7 | 0.00 | 0.00 | 0.00 | 84 | 1007.5 |
| 20260506040827 | 24 | 167 | 6.4 | 25.7 | 0.00 | 0.00 | 0.00 | 84 | 1007.5 |
| 20260506040656 | 24 | 196 | 9.7 | 25.7 | 0.00 | 0.00 | 0.00 | 84 | 1007.5 |
| 20260506040618 | 24 | 201 | 9.7 | 25.7 | 0.00 | 0.00 | 0.00 | 84 | 1007.5 |
| 20260506040501 | 24 | 182 | 9.7 | 25.7 | 0.00 | 0.00 | 0.00 | 84 | 1007.5 |
| 20260506040405 | 24 | 149 | 8.0 | 25.7 | 0.00 | 0.00 | 0.00 | 84 | 1007.5 |
| 20260506040249 | 24 | 183 | 9.7 | 25.7 | 0.00 | 0.00 | 0.00 | 84 | 1007.5 |
| 20260506040152 | 24 | 192 | 11.3 | 25.7 | 0.00 | 0.00 | 0.00 | 84 | 1007.5 |
| 20260506040055 | 24 | 150 | 11.3 | 24.1 | 0.00 | 0.00 | 0.00 | 84 | 1007.5 |
| 20260506040024 | 24 | 158 | 9.7 | 24.1 | 0.00 | 0.00 | 0.00 | 83 | 1007.5 |
| 20260506035905 | 24 | 188 | 11.3 | 24.1 | 0.00 | 0.00 | 0.00 | 83 | 1007.4 |
| 20260506035749 | 24 | 155 | 14.5 | 24.1 | 0.00 | 0.00 | 0.00 | 83 | 1007.4 |
| 20260506035651 | 24 | 165 | 12.9 | 24.1 | 0.00 | 0.00 | 0.00 | 83 | 1007.4 |
| 20260506035555 | 24 | 151 | 9.7 | 22.5 | 0.00 | 0.00 | 0.00 | 83 | 1007.4 |
| 20260506035458 | 24 | 146 | 8.0 | 19.3 | 0.00 | 0.00 | 0.00 | 83 | 1007.3 |
| 20260506035403 | 24 | 165 | 9.7 | 19.3 | 0.00 | 0.00 | 0.00 | 83 | 1007.4 |
| 20260506035250 | 24 | 166 | 9.7 | 19.3 | 0.00 | 0.00 | 0.00 | 83 | 1007.3 |
| 20260506035213 | 24 | 175 | 9.7 | 19.3 | 0.00 | 0.00 | 0.00 | 83 | 1007.3 |
| 20260506035049 | 24 | 160 | 9.7 | 22.5 | 0.00 | 0.00 | 0.00 | 83 | 1007.3 |
| 20260506035013 | 24 | 151 | 8.0 | 22.5 | 0.00 | 0.00 | 0.00 | 83 | 1007.3 |
| 20260506034916 | 24 | 165 | 8.0 | 22.5 | 0.00 | 0.00 | 0.00 | 83 | 1007.3 |
| 20260506034758 | 24 | 156 | 8.0 | 22.5 | 0.00 | 0.00 | 0.00 | 83 | 1007.3 |
| 20260506034702 | 24 | 152 | 8.0 | 22.5 | 0.00 | 0.00 | 0.00 | 83 | 1007.1 |
| 20260506034550 | 24 | 142 | 11.3 | 22.5 | 0.00 | 0.00 | 0.00 | 83 | 1007.2 |
| 20260506034513 | 24 | 130 | 11.3 | 20.9 | 0.00 | 0.00 | 0.00 | 83 | 1007.2 |
| 20260506034416 | 24 | 148 | 12.9 | 20.9 | 0.00 | 0.00 | 0.00 | 83 | 1007.2 |
| 20260506034259 | 24 | 171 | 11.3 | 20.9 | 0.00 | 0.00 | 0.00 | 83 | 1007.3 |
| 20260506034203 | 24 | 142 | 9.7 | 20.9 | 0.00 | 0.00 | 0.00 | 83 | 1007.2 |
| 20260506034126 | 24 | 157 | 9.7 | 20.9 | 0.00 | 0.00 | 0.00 | 83 | 1007.1 |
| 20260506033949 | 24 | 178 | 9.7 | 20.9 | 0.00 | 0.00 | 0.00 | 83 | 1007.1 |
| 20260506033857 | 24 | 154 | 11.3 | 20.9 | 0.00 | 0.00 | 0.00 | 83 | 1007.1 |
| 20260506033820 | 24 | 186 | 11.3 | 20.9 | 0.00 | 0.00 | 0.00 | 83 | 1007.1 |
| 20260506033705 | 24 | 173 | 11.3 | 20.9 | 0.00 | 0.00 | 0.00 | 83 | 1007.0 |
| 20260506033607 | 24 | 151 | 8.0 | 19.3 | 0.00 | 0.00 | 0.00 | 83 | 1007.1 |
| 20260506033451 | 24 | 151 | 8.0 | 19.3 | 0.00 | 0.00 | 0.00 | 83 | 1007.0 |
| 20260506033355 | 24 | 165 | 9.7 | 19.3 | 0.00 | 0.00 | 0.00 | 83 | 1007.0 |
| 20260506033303 | 24 | 150 | 9.7 | 20.9 | 0.00 | 0.00 | 0.00 | 83 | 1007.1 |
| 20260506033206 | 24 | 163 | 9.7 | 20.9 | 0.00 | 0.00 | 0.00 | 83 | 1007.0 |
| 20260506033110 | 24 | 148 | 9.7 | 20.9 | 0.00 | 0.00 | 0.00 | 83 | 1007.0 |
| 20260506032953 | 24 | 162 | 8.0 | 20.9 | 0.00 | 0.00 | 0.00 | 83 | 1007.0 |
| 20260506032856 | 24 | 135 | 6.4 | 20.9 | 0.00 | 0.00 | 0.00 | 83 | 1007.0 |
| 20260506032800 | 24 | 171 | 11.3 | 20.9 | 0.00 | 0.00 | 0.00 | 83 | 1006.9 |
| 20260506032703 | 24 | 146 | 11.3 | 20.9 | 0.00 | 0.00 | 0.00 | 83 | 1006.9 |
| 20260506032630 | 24 | 158 | 11.3 | 20.9 | 0.00 | 0.00 | 0.00 | 83 | 1006.9 |
| 20260506032534 | 24 | 175 | 9.7 | 20.9 | 0.00 | 0.00 | 0.00 | 83 | 1006.8 |
| 20260506032349 | 24 | 189 | 8.0 | 22.5 | 0.00 | 0.00 | 0.00 | 83 | 1006.9 |
| 20260506032312 | 24 | 150 | 8.0 | 22.5 | 0.00 | 0.00 | 0.00 | 83 | 1006.9 |
| 20260506032236 | 24 | 184 | 8.0 | 22.5 | 0.00 | 0.00 | 0.00 | 83 | 1006.9 |
| 20260506032051 | 24 | 162 | 8.0 | 22.5 | 0.00 | 0.00 | 0.00 | 83 | 1006.9 |
| 20260506031954 | 24 | 167 | 8.0 | 22.5 | 0.00 | 0.00 | 0.00 | 83 | 1006.9 |
| 20260506031903 | 24 | 166 | 9.7 | 17.7 | 0.00 | 0.00 | 0.00 | 83 | 1006.8 |
| 20260506031805 | 24 | 138 | 9.7 | 17.7 | 0.00 | 0.00 | 0.00 | 82 | 1006.8 |
| 20260506031650 | 24 | 144 | 11.3 | 17.7 | 0.00 | 0.00 | 0.00 | 82 | 1006.7 |
| 20260506031554 | 24 | 159 | 9.7 | 17.7 | 0.00 | 0.00 | 0.00 | 82 | 1006.7 |
| 20260506031457 | 24 | 153 | 8.0 | 17.7 | 0.00 | 0.00 | 0.00 | 82 | 1006.8 |
| 20260506031421 | 24 | 168 | 8.0 | 17.7 | 0.00 | 0.00 | 0.00 | 82 | 1006.8 |
| 20260506031303 | 24 | 149 | 8.0 | 17.7 | 0.00 | 0.00 | 0.00 | 82 | 1006.7 |
| 20260506031151 | 24 | 178 | 8.0 | 17.7 | 0.00 | 0.00 | 0.00 | 82 | 1006.7 |
| 20260506031054 | 24 | 175 | 6.4 | 17.7 | 0.00 | 0.00 | 0.00 | 82 | 1006.7 |
| 20260506030958 | 24 | 162 | 8.0 | 17.7 | 0.00 | 0.00 | 0.00 | 82 | 1006.7 |
| 20260506030922 | 24 | 141 | 6.4 | 17.7 | 0.00 | 0.00 | 0.00 | 82 | 1006.8 |
| 20260506030805 | 24 | 155 | 9.7 | 17.7 | 0.00 | 0.00 | 0.00 | 82 | 1006.7 |
| 20260506030649 | 24 | 141 | 11.3 | 17.7 | 0.00 | 0.00 | 0.00 | 82 | 1006.6 |
| 20260506030555 | 24 | 182 | 9.7 | 17.7 | 0.00 | 0.00 | 0.00 | 82 | 1006.6 |
| 20260506030459 | 24 | 161 | 8.0 | 19.3 | 0.00 | 0.00 | 0.00 | 82 | 1006.6 |
| 20260506030401 | 24 | 146 | 8.0 | 17.7 | 0.00 | 0.00 | 0.00 | 82 | 1006.5 |
| 20260506030305 | 24 | 166 | 8.0 | 17.7 | 0.00 | 0.00 | 0.00 | 82 | 1006.5 |
| 20260506030228 | 24 | 152 | 8.0 | 17.7 | 0.00 | 0.00 | 0.00 | 82 | 1006.5 |
| 20260506030110 | 24 | 147 | 8.0 | 17.7 | 0.00 | 0.00 | 0.00 | 82 | 1006.5 |
| 20260506030034 | 24 | 167 | 8.0 | 17.7 | 0.00 | 0.00 | 0.00 | 82 | 1006.5 |
| 20260506025849 | 24 | 152 | 6.4 | 17.7 | 0.00 | 0.00 | 0.00 | 81 | 1006.6 |
| 20260506025757 | 24 | 162 | 6.4 | 17.7 | 0.00 | 0.00 | 0.00 | 81 | 1006.6 |
| 20260506025701 | 24 | 157 | 8.0 | 17.7 | 0.00 | 0.00 | 0.00 | 81 | 1006.6 |
| 20260506025604 | 24 | 157 | 6.4 | 17.7 | 0.00 | 0.00 | 0.00 | 81 | 1006.5 |
| 20260506025507 | 24 | 143 | 4.8 | 14.5 | 0.00 | 0.00 | 0.00 | 81 | 1006.6 |
| 20260506025350 | 24 | 165 | 6.4 | 14.5 | 0.00 | 0.00 | 0.00 | 81 | 1006.6 |
| 20260506025313 | 24 | 156 | 8.0 | 16.1 | 0.00 | 0.00 | 0.00 | 81 | 1006.6 |
| 20260506025155 | 24 | 157 | 6.4 | 14.5 | 0.00 | 0.00 | 0.00 | 81 | 1006.5 |
| 20260506025122 | 25 | 144 | 6.4 | 14.5 | 0.00 | 0.00 | 0.00 | 81 | 1006.7 |
| 20260506025004 | 25 | 146 | 8.0 | 14.5 | 0.00 | 0.00 | 0.00 | 81 | 1006.5 |
| 20260506024848 | 25 | 175 | 6.4 | 17.7 | 0.00 | 0.00 | 0.00 | 81 | 1006.4 |
| 20260506024752 | 25 | 150 | 6.4 | 17.7 | 0.00 | 0.00 | 0.00 | 80 | 1006.4 |
| 20260506024656 | 25 | 168 | 6.4 | 17.7 | 0.00 | 0.00 | 0.00 | 80 | 1006.4 |
| 20260506024559 | 25 | 144 | 6.4 | 17.7 | 0.00 | 0.00 | 0.00 | 80 | 1006.4 |
| 20260506024504 | 25 | 150 | 8.0 | 17.7 | 0.00 | 0.00 | 0.00 | 80 | 1006.4 |
| 20260506024351 | 25 | 180 | 6.4 | 17.7 | 0.00 | 0.00 | 0.00 | 80 | 1006.3 |
| 20260506024254 | 25 | 153 | 8.0 | 17.7 | 0.00 | 0.00 | 0.00 | 80 | 1006.3 |
| 20260506024157 | 25 | 172 | 8.0 | 17.7 | 0.00 | 0.00 | 0.00 | 80 | 1006.4 |
| 20260506024101 | 25 | 168 | 8.0 | 17.7 | 0.00 | 0.00 | 0.00 | 80 | 1006.4 |
| 20260506024004 | 25 | 168 | 8.0 | 19.3 | 0.00 | 0.00 | 0.00 | 80 | 1006.3 |
| 20260506023853 | 25 | 141 | 8.0 | 17.7 | 0.00 | 0.00 | 0.00 | 79 | 1006.2 |
| 20260506023756 | 25 | 157 | 8.0 | 17.7 | 0.00 | 0.00 | 0.00 | 79 | 1006.2 |
| 20260506023701 | 25 | 173 | 8.0 | 17.7 | 0.00 | 0.00 | 0.00 | 79 | 1006.3 |
| 20260506023603 | 25 | 172 | 6.4 | 17.7 | 0.00 | 0.00 | 0.00 | 79 | 1006.2 |
| 20260506023506 | 25 | 176 | 8.0 | 17.7 | 0.00 | 0.00 | 0.00 | 79 | 1006.2 |
| 20260506023350 | 25 | 150 | 8.0 | 19.3 | 0.00 | 0.00 | 0.00 | 79 | 1006.2 |
| 20260506023314 | 25 | 160 | 8.0 | 19.3 | 0.00 | 0.00 | 0.00 | 79 | 1006.2 |
| 20260506023220 | 25 | 163 | 8.0 | 19.3 | 0.00 | 0.00 | 0.00 | 79 | 1006.2 |
| 20260506023123 | 25 | 172 | 8.0 | 19.3 | 0.00 | 0.00 | 0.00 | 79 | 1006.2 |
| 20260506023005 | 25 | 158 | 6.4 | 19.3 | 0.00 | 0.00 | 0.00 | 79 | 1006.2 |
| 20260506022848 | 25 | 185 | 8.0 | 19.3 | 0.00 | 0.00 | 0.00 | 79 | 1006.1 |
| 20260506022751 | 25 | 149 | 8.0 | 19.3 | 0.00 | 0.00 | 0.00 | 79 | 1006.0 |
| 20260506022655 | 25 | 171 | 6.4 | 19.3 | 0.00 | 0.00 | 0.00 | 78 | 1006.0 |
| 20260506022620 | 25 | 158 | 8.0 | 19.3 | 0.00 | 0.00 | 0.00 | 78 | 1006.1 |
| 20260506022522 | 25 | 158 | 9.7 | 19.3 | 0.00 | 0.00 | 0.00 | 78 | 1006.1 |
| 20260506022349 | 25 | 182 | 6.4 | 20.9 | 0.00 | 0.00 | 0.00 | 78 | 1006.0 |
| 20260506022251 | 25 | 156 | 6.4 | 17.7 | 0.00 | 0.00 | 0.00 | 78 | 1006.0 |
| 20260506022155 | 25 | 148 | 8.0 | 17.7 | 0.00 | 0.00 | 0.00 | 78 | 1006.0 |
| 20260506022058 | 25 | 153 | 8.0 | 17.7 | 0.00 | 0.00 | 0.00 | 78 | 1006.0 |
| 20260506022022 | 25 | 152 | 8.0 | 17.7 | 0.00 | 0.00 | 0.00 | 78 | 1006.0 |
| 20260506021904 | 25 | 197 | 8.0 | 20.9 | 0.00 | 0.00 | 0.00 | 78 | 1005.9 |
| 20260506021752 | 25 | 165 | 8.0 | 17.7 | 0.00 | 0.00 | 0.00 | 78 | 1005.9 |
| 20260506021655 | 25 | 167 | 8.0 | 17.7 | 0.00 | 0.00 | 0.00 | 78 | 1005.9 |
| 20260506021559 | 25 | 190 | 6.4 | 17.7 | 0.00 | 0.00 | 0.00 | 78 | 1005.9 |
| 20260506021503 | 25 | 146 | 6.4 | 17.7 | 0.00 | 0.00 | 0.00 | 78 | 1005.8 |
| 20260506021406 | 25 | 190 | 8.0 | 17.7 | 0.00 | 0.00 | 0.00 | 78 | 1005.8 |
| 20260506021310 | 25 | 153 | 8.0 | 17.7 | 0.00 | 0.00 | 0.00 | 78 | 1005.7 |
| 20260506021212 | 25 | 157 | 8.0 | 17.7 | 0.00 | 0.00 | 0.00 | 78 | 1005.7 |
| 20260506021100 | 25 | 155 | 8.0 | 17.7 | 0.00 | 0.00 | 0.00 | 78 | 1005.7 |
| 20260506021003 | 25 | 162 | 6.4 | 17.7 | 0.00 | 0.00 | 0.00 | 77 | 1005.7 |
| 20260506020906 | 25 | 158 | 6.4 | 16.1 | 0.00 | 0.00 | 0.00 | 77 | 1005.7 |
| 20260506020811 | 25 | 150 | 6.4 | 16.1 | 0.00 | 0.00 | 0.00 | 77 | 1005.7 |
| 20260506020652 | 25 | 157 | 6.4 | 16.1 | 0.00 | 0.00 | 0.00 | 77 | 1005.7 |
| 20260506020555 | 25 | 161 | 6.4 | 16.1 | 0.00 | 0.00 | 0.00 | 77 | 1005.7 |
| 20260506020502 | 25 | 147 | 6.4 | 16.1 | 0.00 | 0.00 | 0.00 | 77 | 1005.6 |
| 20260506020405 | 25 | 149 | 8.0 | 16.1 | 0.00 | 0.00 | 0.00 | 77 | 1005.6 |
| 20260506020329 | 25 | 171 | 8.0 | 16.1 | 0.00 | 0.00 | 0.00 | 77 | 1005.7 |
| 20260506020152 | 25 | 159 | 8.0 | 16.1 | 0.00 | 0.00 | 0.00 | 77 | 1005.6 |
| 20260506020054 | 25 | 156 | 9.7 | 16.1 | 0.00 | 0.00 | 0.00 | 77 | 1005.6 |
| 20260506015959 | 25 | 155 | 8.0 | 16.1 | 0.00 | 0.00 | 0.00 | 77 | 1005.6 |
| 20260506015922 | 25 | 133 | 6.4 | 16.1 | 0.00 | 0.00 | 0.00 | 77 | 1005.5 |
| 20260506015825 | 25 | 156 | 6.4 | 16.1 | 0.00 | 0.00 | 0.00 | 77 | 1005.6 |
| 20260506015650 | 25 | 169 | 6.4 | 17.7 | 0.00 | 0.00 | 0.00 | 77 | 1005.6 |
| 20260506015554 | 25 | 159 | 8.0 | 17.7 | 0.00 | 0.00 | 0.00 | 76 | 1005.6 |
| 20260506015458 | 25 | 148 | 8.0 | 17.7 | 0.00 | 0.00 | 0.00 | 76 | 1005.6 |
| 20260506015401 | 25 | 158 | 8.0 | 17.7 | 0.00 | 0.00 | 0.00 | 76 | 1005.5 |
| 20260506015306 | 25 | 174 | 6.4 | 17.7 | 0.00 | 0.00 | 0.00 | 76 | 1005.6 |
| 20260506015152 | 25 | 151 | 8.0 | 17.7 | 0.00 | 0.00 | 0.00 | 76 | 1005.6 |
| 20260506015056 | 25 | 155 | 9.7 | 17.7 | 0.00 | 0.00 | 0.00 | 76 | 1005.5 |
| 20260506014959 | 26 | 148 | 8.0 | 17.7 | 0.00 | 0.00 | 0.00 | 76 | 1005.5 |
| 20260506014903 | 25 | 155 | 6.4 | 17.7 | 0.00 | 0.00 | 0.00 | 76 | 1005.5 |
| 20260506014806 | 25 | 150 | 6.4 | 17.7 | 0.00 | 0.00 | 0.00 | 76 | 1005.5 |
| 20260506014650 | 26 | 147 | 4.8 | 14.5 | 0.00 | 0.00 | 0.00 | 76 | 1005.5 |
| 20260506014615 | 26 | 139 | 4.8 | 12.9 | 0.00 | 0.00 | 0.00 | 76 | 1005.5 |
| 20260506014502 | 26 | 178 | 6.4 | 12.9 | 0.00 | 0.00 | 0.00 | 76 | 1005.5 |
| 20260506014426 | 26 | 141 | 6.4 | 14.5 | 0.00 | 0.00 | 0.00 | 76 | 1005.4 |
| 20260506014248 | 26 | 154 | 6.4 | 14.5 | 0.00 | 0.00 | 0.00 | 76 | 1005.4 |
| 20260506014211 | 26 | 169 | 4.8 | 14.5 | 0.00 | 0.00 | 0.00 | 76 | 1005.4 |
| 20260506014054 | 26 | 144 | 4.8 | 14.5 | 0.00 | 0.00 | 0.00 | 76 | 1005.4 |
| 20260506013957 | 26 | 144 | 4.8 | 14.5 | 0.00 | 0.00 | 0.00 | 76 | 1005.3 |
| 20260506013901 | 26 | 156 | 4.8 | 14.5 | 0.00 | 0.00 | 0.00 | 76 | 1005.4 |
| 20260506013749 | 26 | 150 | 6.4 | 14.5 | 0.00 | 0.00 | 0.00 | 76 | 1005.4 |
| 20260506013651 | 26 | 159 | 6.4 | 14.5 | 0.00 | 0.00 | 0.00 | 75 | 1005.3 |
| 20260506013553 | 26 | 159 | 6.4 | 12.9 | 0.00 | 0.00 | 0.00 | 75 | 1005.3 |
| 20260506013458 | 26 | 149 | 6.4 | 12.9 | 0.00 | 0.00 | 0.00 | 75 | 1005.4 |
| 20260506013401 | 26 | 141 | 6.4 | 12.9 | 0.00 | 0.00 | 0.00 | 75 | 1005.3 |
| 20260506013249 | 26 | 155 | 6.4 | 12.9 | 0.00 | 0.00 | 0.00 | 75 | 1005.4 |
| 20260506013213 | 26 | 148 | 6.4 | 12.9 | 0.00 | 0.00 | 0.00 | 75 | 1005.4 |
| 20260506013049 | 26 | 131 | 4.8 | 11.3 | 0.00 | 0.00 | 0.00 | 75 | 1005.3 |
| 20260506013014 | 26 | 146 | 4.8 | 12.9 | 0.00 | 0.00 | 0.00 | 75 | 1005.3 |
| 20260506012855 | 26 | 150 | 4.8 | 12.9 | 0.00 | 0.00 | 0.00 | 75 | 1005.3 |
| 20260506012800 | 26 | 144 | 4.8 | 12.9 | 0.00 | 0.00 | 0.00 | 75 | 1005.3 |
| 20260506012704 | 26 | 150 | 3.2 | 12.9 | 0.00 | 0.00 | 0.00 | 75 | 1005.3 |
| 20260506012552 | 26 | 150 | 4.8 | 12.9 | 0.00 | 0.00 | 0.00 | 75 | 1005.3 |
| 20260506012455 | 26 | 149 | 4.8 | 12.9 | 0.00 | 0.00 | 0.00 | 75 | 1005.3 |
| 20260506012359 | 26 | 158 | 3.2 | 12.9 | 0.00 | 0.00 | 0.00 | 75 | 1005.3 |
| 20260506012307 | 26 | 143 | 4.8 | 12.9 | 0.00 | 0.00 | 0.00 | 75 | 1005.3 |
| 20260506012206 | 26 | 148 | 4.8 | 12.9 | 0.00 | 0.00 | 0.00 | 75 | 1005.3 |
| 20260506012050 | 26 | 157 | 4.8 | 12.9 | 0.00 | 0.00 | 0.00 | 75 | 1005.4 |
| 20260506012018 | 26 | 160 | 4.8 | 12.9 | 0.00 | 0.00 | 0.00 | 75 | 1005.4 |
| 20260506011901 | 26 | 164 | 6.4 | 12.9 | 0.00 | 0.00 | 0.00 | 75 | 1005.4 |
| 20260506011804 | 26 | 146 | 6.4 | 12.9 | 0.00 | 0.00 | 0.00 | 75 | 1005.5 |
| 20260506011647 | 26 | 155 | 4.8 | 12.9 | 0.00 | 0.00 | 0.00 | 74 | 1005.6 |
| 20260506011552 | 26 | 149 | 6.4 | 12.9 | 0.00 | 0.00 | 0.00 | 74 | 1005.6 |
| 20260506011456 | 26 | 144 | 6.4 | 11.3 | 0.00 | 0.00 | 0.00 | 74 | 1005.5 |
| 20260506011403 | 26 | 151 | 6.4 | 11.3 | 0.00 | 0.00 | 0.00 | 74 | 1005.6 |
| 20260506011248 | 26 | 161 | 4.8 | 11.3 | 0.00 | 0.00 | 0.00 | 74 | 1005.7 |
| 20260506011153 | 26 | 155 | 6.4 | 11.3 | 0.00 | 0.00 | 0.00 | 74 | 1005.7 |
| 20260506011057 | 26 | 137 | 6.4 | 11.3 | 0.00 | 0.00 | 0.00 | 74 | 1005.7 |
| 20260506011000 | 26 | 167 | 6.4 | 11.3 | 0.00 | 0.00 | 0.00 | 74 | 1005.7 |
| 20260506010904 | 26 | 151 | 8.0 | 11.3 | 0.00 | 0.00 | 0.00 | 73 | 1005.8 |
| 20260506010752 | 26 | 163 | 8.0 | 11.3 | 0.00 | 0.00 | 0.00 | 73 | 1005.7 |
| 20260506010655 | 26 | 154 | 6.4 | 11.3 | 0.00 | 0.00 | 0.00 | 73 | 1005.7 |
| 20260506010558 | 26 | 164 | 4.8 | 11.3 | 0.00 | 0.00 | 0.00 | 73 | 1005.7 |
| 20260506010521 | 26 | 147 | 4.8 | 11.3 | 0.00 | 0.00 | 0.00 | 73 | 1005.6 |
| 20260506010404 | 26 | 167 | 4.8 | 11.3 | 0.00 | 0.00 | 0.00 | 73 | 1005.6 |
| 20260506010328 | 26 | 161 | 4.8 | 11.3 | 0.00 | 0.00 | 0.00 | 73 | 1005.6 |
| 20260506010150 | 26 | 180 | 6.4 | 11.3 | 0.00 | 0.00 | 0.00 | 73 | 1005.5 |
| 20260506010058 | 26 | 178 | 6.4 | 11.3 | 0.00 | 0.00 | 0.00 | 73 | 1005.5 |
| 20260506010021 | 26 | 158 | 4.8 | 11.3 | 0.00 | 0.00 | 0.00 | 73 | 1005.5 |
| 20260506005904 | 26 | 171 | 6.4 | 11.3 | 0.00 | 0.00 | 0.00 | 73 | 1005.4 |
| 20260506005748 | 26 | 146 | 4.8 | 11.3 | 0.00 | 0.00 | 0.00 | 73 | 1005.5 |
| 20260506005651 | 27 | 186 | 6.4 | 11.3 | 0.00 | 0.00 | 0.00 | 73 | 1005.6 |
| 20260506005555 | 27 | 157 | 6.4 | 11.3 | 0.00 | 0.00 | 0.00 | 72 | 1005.6 |
| 20260506005503 | 27 | 160 | 6.4 | 11.3 | 0.00 | 0.00 | 0.00 | 72 | 1005.5 |
| 20260506005406 | 27 | 153 | 4.8 | 11.3 | 0.00 | 0.00 | 0.00 | 72 | 1005.5 |
| 20260506005310 | 27 | 161 | 4.8 | 11.3 | 0.00 | 0.00 | 0.00 | 72 | 1005.5 |
| 20260506005152 | 27 | 159 | 4.8 | 11.3 | 0.00 | 0.00 | 0.00 | 72 | 1005.5 |
| 20260506005116 | 27 | 186 | 4.8 | 11.3 | 0.00 | 0.00 | 0.00 | 72 | 1005.5 |
| 20260506004957 | 27 | 175 | 4.8 | 11.3 | 0.00 | 0.00 | 0.00 | 72 | 1005.6 |
| 20260506004922 | 27 | 178 | 4.8 | 11.3 | 0.00 | 0.00 | 0.00 | 72 | 1005.6 |
| 20260506004804 | 27 | 141 | 3.2 | 11.3 | 0.00 | 0.00 | 0.00 | 72 | 1005.6 |
| 20260506004711 | 27 | 150 | 3.2 | 9.7 | 0.00 | 0.00 | 0.00 | 72 | 1005.5 |
| 20260506004636 | 27 | 152 | 3.2 | 9.7 | 0.00 | 0.00 | 0.00 | 72 | 1005.5 |
| 20260506004450 | 27 | 184 | 1.6 | 6.4 | 0.00 | 0.00 | 0.00 | 72 | 1005.5 |
| 20260506004414 | 27 | 184 | 0.0 | 11.3 | 0.00 | 0.00 | 0.00 | 72 | 1005.5 |
| 20260506004250 | 27 | 184 | 1.6 | 11.3 | 0.00 | 0.00 | 0.00 | 72 | 1005.4 |
| 20260506004154 | 27 | 184 | 3.2 | 11.3 | 0.00 | 0.00 | 0.00 | 72 | 1005.4 |
| 20260506004101 | 27 | 185 | 3.2 | 11.3 | 0.00 | 0.00 | 0.00 | 72 | 1005.5 |
| 20260506004005 | 27 | 185 | 3.2 | 11.3 | 0.00 | 0.00 | 0.00 | 72 | 1005.5 |
| 20260506003848 | 27 | 186 | 3.2 | 11.3 | 0.00 | 0.00 | 0.00 | 72 | 1005.4 |
| 20260506003752 | 27 | 186 | 4.8 | 11.3 | 0.00 | 0.00 | 0.00 | 72 | 1005.4 |
| 20260506003717 | 27 | 186 | 4.8 | 11.3 | 0.00 | 0.00 | 0.00 | 72 | 1005.4 |
| 20260506003558 | 27 | 187 | 4.8 | 12.9 | 0.00 | 0.00 | 0.00 | 72 | 1005.4 |
| 20260506003502 | 27 | 186 | 3.2 | 12.9 | 0.00 | 0.00 | 0.00 | 72 | 1005.3 |
| 20260506003349 | 27 | 186 | 6.4 | 12.9 | 0.00 | 0.00 | 0.00 | 72 | 1005.3 |
| 20260506003253 | 27 | 195 | 6.4 | 12.9 | 0.00 | 0.00 | 0.00 | 72 | 1005.3 |
| 20260506003156 | 27 | 184 | 6.4 | 12.9 | 0.00 | 0.00 | 0.00 | 72 | 1005.4 |
| 20260506003100 | 27 | 175 | 6.4 | 12.9 | 0.00 | 0.00 | 0.00 | 72 | 1005.3 |
| 20260506003004 | 27 | 184 | 6.4 | 12.9 | 0.00 | 0.00 | 0.00 | 71 | 1005.3 |
| 20260506002928 | 27 | 173 | 6.4 | 12.9 | 0.00 | 0.00 | 0.00 | 71 | 1005.2 |
| 20260506002753 | 27 | 194 | 8.0 | 12.9 | 0.00 | 0.00 | 0.00 | 71 | 1005.3 |
| 20260506002717 | 27 | 191 | 8.0 | 12.9 | 0.00 | 0.00 | 0.00 | 71 | 1005.3 |
| 20260506002619 | 27 | 178 | 6.4 | 12.9 | 0.00 | 0.00 | 0.00 | 71 | 1005.2 |
| 20260506002502 | 27 | 172 | 6.4 | 14.5 | 0.00 | 0.00 | 0.00 | 71 | 1005.3 |
| 20260506002405 | 27 | 180 | 6.4 | 12.9 | 0.00 | 0.00 | 0.00 | 71 | 1005.4 |
| 20260506002248 | 27 | 174 | 6.4 | 12.9 | 0.00 | 0.00 | 0.00 | 71 | 1005.4 |
| 20260506002152 | 27 | 174 | 3.2 | 12.9 | 0.00 | 0.00 | 0.00 | 71 | 1005.4 |
| 20260506002059 | 27 | 175 | 1.6 | 12.9 | 0.00 | 0.00 | 0.00 | 71 | 1005.4 |
| 20260506002024 | 27 | 180 | 3.2 | 12.9 | 0.00 | 0.00 | 0.00 | 71 | 1005.3 |
| 20260506001906 | 27 | 182 | 4.8 | 12.9 | 0.00 | 0.00 | 0.00 | 71 | 1005.4 |
| 20260506001810 | 27 | 182 | 6.4 | 12.9 | 0.00 | 0.00 | 0.00 | 70 | 1005.3 |
| 20260506001652 | 27 | 166 | 6.4 | 12.9 | 0.00 | 0.00 | 0.00 | 70 | 1005.3 |
| 20260506001556 | 27 | 191 | 6.4 | 14.5 | 0.00 | 0.00 | 0.00 | 70 | 1005.3 |
| 20260506001459 | 27 | 167 | 6.4 | 19.3 | 0.00 | 0.00 | 0.00 | 70 | 1005.3 |
| 20260506001407 | 27 | 171 | 6.4 | 19.3 | 0.00 | 0.00 | 0.00 | 70 | 1005.3 |
| 20260506001250 | 27 | 141 | 6.4 | 19.3 | 0.00 | 0.00 | 0.00 | 71 | 1005.3 |
| 20260506001154 | 27 | 168 | 4.8 | 19.3 | 0.00 | 0.00 | 0.00 | 70 | 1005.3 |
| 20260506001057 | 27 | 177 | 6.4 | 19.3 | 0.00 | 0.00 | 0.00 | 71 | 1005.3 |
| 20260506001001 | 27 | 187 | 6.4 | 19.3 | 0.00 | 0.00 | 0.00 | 71 | 1005.3 |
| 20260506000924 | 27 | 190 | 8.0 | 19.3 | 0.00 | 0.00 | 0.00 | 70 | 1005.3 |
| 20260506000751 | 27 | 193 | 9.7 | 19.3 | 0.00 | 0.00 | 0.00 | 70 | 1005.3 |
| 20260506000656 | 27 | 215 | 9.7 | 19.3 | 0.00 | 0.00 | 0.00 | 70 | 1005.3 |
| 20260506000558 | 27 | 186 | 9.7 | 16.1 | 0.00 | 0.00 | 0.00 | 70 | 1005.2 |
| 20260506000501 | 27 | 197 | 8.0 | 16.1 | 0.00 | 0.00 | 0.00 | 70 | 1005.1 |
| 20260506000405 | 27 | 217 | 8.0 | 16.1 | 0.00 | 0.00 | 0.00 | 70 | 1005.1 |
| 20260506000249 | 27 | 209 | 9.7 | 16.1 | 0.00 | 0.00 | 0.00 | 70 | 1005.1 |
| 20260506000157 | 27 | 193 | 6.4 | 17.7 | 0.00 | 0.00 | 0.00 | 70 | 1005.1 |
| 20260506000100 | 27 | 180 | 4.8 | 12.9 | 0.00 | 0.00 | 0.00 | 71 | 1005.1 |
| 20260506000003 | 27 | 193 | 4.8 | 16.1 | 0.00 | 0.00 | 0.00 | 71 | 1005.1 |
| 20260505235907 | 27 | 180 | 4.8 | 16.1 | 0.00 | 0.00 | 0.00 | 71 | 1005.2 |
| 20260505235810 | 27 | 142 | 4.8 | 16.1 | 0.00 | 0.00 | 0.00 | 71 | 1005.2 |
| 20260505235653 | 27 | 165 | 6.4 | 16.1 | 0.00 | 0.00 | 0.00 | 70 | 1005.2 |
| 20260505235600 | 27 | 181 | 6.4 | 16.1 | 0.00 | 0.00 | 0.00 | 70 | 1005.1 |
| 20260505235524 | 27 | 171 | 6.4 | 16.1 | 0.00 | 0.00 | 0.00 | 70 | 1005.1 |
| 20260505235406 | 27 | 149 | 6.4 | 16.1 | 0.00 | 0.00 | 0.00 | 70 | 1005.1 |
| 20260505235250 | 27 | 171 | 8.0 | 16.1 | 0.00 | 0.00 | 0.00 | 70 | 1005.0 |
| 20260505235154 | 27 | 190 | 8.0 | 16.1 | 0.00 | 0.00 | 0.00 | 70 | 1005.0 |
| 20260505235057 | 27 | 174 | 8.0 | 16.1 | 0.00 | 0.00 | 0.00 | 70 | 1005.0 |
| 20260505235001 | 27 | 178 | 8.0 | 16.1 | 0.00 | 0.00 | 0.00 | 70 | 1005.0 |
| 20260505234849 | 27 | 183 | 8.0 | 16.1 | 0.00 | 0.00 | 0.00 | 70 | 1004.9 |
| 20260505234812 | 27 | 190 | 6.4 | 16.1 | 0.00 | 0.00 | 0.00 | 70 | 1005.0 |
| 20260505234714 | 27 | 170 | 8.0 | 17.7 | 0.00 | 0.00 | 0.00 | 70 | 1005.0 |
| 20260505234551 | 27 | 172 | 8.0 | 17.7 | 0.00 | 0.00 | 0.00 | 70 | 1004.9 |
| 20260505234455 | 27 | 196 | 9.7 | 17.7 | 0.00 | 0.00 | 0.00 | 69 | 1004.9 |
| 20260505234358 | 27 | 194 | 8.0 | 19.3 | 0.00 | 0.00 | 0.00 | 69 | 1004.9 |
| 20260505234307 | 27 | 167 | 4.8 | 19.3 | 0.00 | 0.00 | 0.00 | 70 | 1004.9 |
| 20260505234151 | 27 | 184 | 8.0 | 19.3 | 0.00 | 0.00 | 0.00 | 70 | 1004.9 |
| 20260505234055 | 27 | 202 | 9.7 | 19.3 | 0.00 | 0.00 | 0.00 | 70 | 1004.9 |
| 20260505233958 | 27 | 189 | 9.7 | 19.3 | 0.00 | 0.00 | 0.00 | 70 | 1004.9 |
| 20260505233922 | 27 | 178 | 8.0 | 19.3 | 0.00 | 0.00 | 0.00 | 70 | 1005.0 |
| 20260505233805 | 27 | 198 | 8.0 | 19.3 | 0.00 | 0.00 | 0.00 | 70 | 1005.0 |
| 20260505233652 | 27 | 173 | 9.7 | 19.3 | 0.00 | 0.00 | 0.00 | 70 | 1005.0 |
| 20260505233554 | 27 | 178 | 9.7 | 19.3 | 0.00 | 0.00 | 0.00 | 70 | 1005.0 |
| 20260505233458 | 27 | 178 | 9.7 | 20.9 | 0.00 | 0.00 | 0.00 | 70 | 1005.0 |
| 20260505233402 | 27 | 174 | 8.0 | 17.7 | 0.00 | 0.00 | 0.00 | 70 | 1005.1 |
| 20260505233307 | 27 | 171 | 8.0 | 17.7 | 0.00 | 0.00 | 0.00 | 70 | 1005.1 |
| 20260505233150 | 27 | 180 | 9.7 | 17.7 | 0.00 | 0.00 | 0.00 | 69 | 1005.2 |
| 20260505233057 | 27 | 191 | 9.7 | 17.7 | 0.00 | 0.00 | 0.00 | 70 | 1005.2 |
| 20260505233021 | 27 | 199 | 9.7 | 16.1 | 0.00 | 0.00 | 0.00 | 70 | 1005.2 |
| 20260505232924 | 27 | 188 | 8.0 | 16.1 | 0.00 | 0.00 | 0.00 | 69 | 1005.1 |
| 20260505232807 | 27 | 172 | 8.0 | 17.7 | 0.00 | 0.00 | 0.00 | 70 | 1005.1 |
| 20260505232649 | 27 | 175 | 9.7 | 17.7 | 0.00 | 0.00 | 0.00 | 69 | 1005.0 |
| 20260505232553 | 27 | 170 | 9.7 | 17.7 | 0.00 | 0.00 | 0.00 | 70 | 1005.0 |
| 20260505232456 | 27 | 190 | 8.0 | 17.7 | 0.00 | 0.00 | 0.00 | 70 | 1005.1 |
| 20260505232400 | 27 | 167 | 8.0 | 17.7 | 0.00 | 0.00 | 0.00 | 70 | 1005.1 |
| 20260505232307 | 27 | 177 | 6.4 | 17.7 | 0.00 | 0.00 | 0.00 | 71 | 1005.2 |
| 20260505232212 | 27 | 196 | 8.0 | 17.7 | 0.00 | 0.00 | 0.00 | 70 | 1005.1 |
| 20260505232048 | 27 | 213 | 11.3 | 17.7 | 0.00 | 0.00 | 0.00 | 70 | 1005.1 |
| 20260505231952 | 27 | 206 | 11.3 | 17.7 | 0.00 | 0.00 | 0.00 | 70 | 1005.1 |
| 20260505231915 | 27 | 186 | 9.7 | 17.7 | 0.00 | 0.00 | 0.00 | 70 | 1005.1 |
| 20260505231758 | 27 | 170 | 6.4 | 20.9 | 0.00 | 0.00 | 0.00 | 70 | 1005.2 |
| 20260505231705 | 27 | 136 | 4.8 | 17.7 | 0.00 | 0.00 | 0.00 | 70 | 1005.1 |
| 20260505231549 | 27 | 225 | 8.0 | 17.7 | 0.00 | 0.00 | 0.00 | 70 | 1005.2 |
| 20260505231453 | 27 | 206 | 8.0 | 17.7 | 0.00 | 0.00 | 0.00 | 70 | 1005.2 |
| 20260505231358 | 27 | 200 | 8.0 | 17.7 | 0.00 | 0.00 | 0.00 | 69 | 1005.2 |
| 20260505231301 | 27 | 204 | 8.0 | 17.7 | 0.00 | 0.00 | 0.00 | 69 | 1005.1 |
| 20260505231205 | 27 | 200 | 8.0 | 17.7 | 0.00 | 0.00 | 0.00 | 70 | 1005.1 |
| 20260505231052 | 27 | 195 | 6.4 | 20.9 | 0.00 | 0.00 | 0.00 | 70 | 1005.1 |
| 20260505231016 | 27 | 186 | 9.7 | 19.3 | 0.00 | 0.00 | 0.00 | 69 | 1005.0 |
| 20260505230859 | 27 | 165 | 9.7 | 19.3 | 0.00 | 0.00 | 0.00 | 69 | 1005.0 |
| 20260505230802 | 27 | 201 | 8.0 | 17.7 | 0.00 | 0.00 | 0.00 | 69 | 1005.0 |
| 20260505230707 | 27 | 173 | 8.0 | 17.7 | 0.00 | 0.00 | 0.00 | 69 | 1005.2 |
| 20260505230550 | 27 | 198 | 4.8 | 17.7 | 0.00 | 0.00 | 0.00 | 70 | 1005.1 |
| 20260505230457 | 27 | 179 | 4.8 | 19.3 | 0.00 | 0.00 | 0.00 | 70 | 1005.1 |
| 20260505230401 | 27 | 204 | 6.4 | 19.3 | 0.00 | 0.00 | 0.00 | 70 | 1005.0 |
| 20260505230304 | 27 | 196 | 8.0 | 19.3 | 0.00 | 0.00 | 0.00 | 69 | 1005.1 |
| 20260505230148 | 27 | 194 | 6.4 | 19.3 | 0.00 | 0.00 | 0.00 | 69 | 1005.0 |
| 20260505230051 | 27 | 201 | 8.0 | 19.3 | 0.00 | 0.00 | 0.00 | 69 | 1005.0 |
| 20260505225955 | 27 | 184 | 9.7 | 19.3 | 0.00 | 0.00 | 0.00 | 69 | 1005.0 |
| 20260505225902 | 27 | 181 | 9.7 | 19.3 | 0.00 | 0.00 | 0.00 | 69 | 1005.0 |
| 20260505225806 | 27 | 217 | 11.3 | 20.9 | 0.00 | 0.00 | 0.00 | 69 | 1004.9 |
| 20260505225650 | 27 | 219 | 9.7 | 20.9 | 0.00 | 0.00 | 0.00 | 69 | 1004.9 |
| 20260505225613 | 27 | 205 | 8.0 | 20.9 | 0.00 | 0.00 | 0.00 | 69 | 1004.9 |
| 20260505225456 | 27 | 218 | 8.0 | 20.9 | 0.00 | 0.00 | 0.00 | 69 | 1005.0 |
| 20260505225419 | 27 | 211 | 9.7 | 24.1 | 0.00 | 0.00 | 0.00 | 69 | 1004.9 |
| 20260505225305 | 27 | 193 | 9.7 | 24.1 | 0.00 | 0.00 | 0.00 | 69 | 1004.9 |
| 20260505225210 | 27 | 198 | 11.3 | 24.1 | 0.00 | 0.00 | 0.00 | 69 | 1004.8 |
| 20260505225052 | 27 | 190 | 11.3 | 24.1 | 0.00 | 0.00 | 0.00 | 69 | 1004.8 |
| 20260505225016 | 27 | 208 | 9.7 | 24.1 | 0.00 | 0.00 | 0.00 | 68 | 1004.9 |
| 20260505224918 | 27 | 172 | 11.3 | 24.1 | 0.00 | 0.00 | 0.00 | 68 | 1004.9 |
| 20260505224801 | 27 | 191 | 12.9 | 24.1 | 0.00 | 0.00 | 0.00 | 68 | 1004.8 |
| 20260505224704 | 27 | 182 | 12.9 | 24.1 | 0.00 | 0.00 | 0.00 | 68 | 1004.8 |
| 20260505224608 | 27 | 182 | 9.7 | 24.1 | 0.00 | 0.00 | 0.00 | 68 | 1004.9 |
| 20260505224454 | 27 | 195 | 11.3 | 24.1 | 0.00 | 0.00 | 0.00 | 68 | 1004.9 |
| 20260505224358 | 27 | 190 | 12.9 | 24.1 | 0.00 | 0.00 | 0.00 | 68 | 1004.9 |
| 20260505224302 | 27 | 193 | 12.9 | 24.1 | 0.00 | 0.00 | 0.00 | 67 | 1004.9 |
| 20260505224206 | 27 | 186 | 9.7 | 20.9 | 0.00 | 0.00 | 0.00 | 68 | 1004.9 |
| 20260505224048 | 27 | 207 | 8.0 | 20.9 | 0.00 | 0.00 | 0.00 | 68 | 1004.9 |
| 20260505223951 | 27 | 196 | 8.0 | 20.9 | 0.00 | 0.00 | 0.00 | 68 | 1004.9 |
| 20260505223855 | 27 | 184 | 6.4 | 20.9 | 0.00 | 0.00 | 0.00 | 69 | 1004.8 |
| 20260505223802 | 27 | 200 | 8.0 | 20.9 | 0.00 | 0.00 | 0.00 | 69 | 1004.8 |
| 20260505223707 | 27 | 222 | 8.0 | 20.9 | 0.00 | 0.00 | 0.00 | 68 | 1004.8 |
| 20260505223549 | 27 | 194 | 9.7 | 25.7 | 0.00 | 0.00 | 0.00 | 68 | 1004.8 |
| 20260505223453 | 27 | 176 | 11.3 | 25.7 | 0.00 | 0.00 | 0.00 | 68 | 1004.8 |
| 20260505223416 | 27 | 176 | 11.3 | 25.7 | 0.00 | 0.00 | 0.00 | 68 | 1004.8 |
| 20260505223259 | 27 | 173 | 11.3 | 25.7 | 0.00 | 0.00 | 0.00 | 68 | 1004.8 |
| 20260505223206 | 27 | 162 | 9.7 | 25.7 | 0.00 | 0.00 | 0.00 | 68 | 1004.8 |
| 20260505223050 | 27 | 180 | 9.7 | 25.7 | 0.00 | 0.00 | 0.00 | 68 | 1004.8 |
| 20260505222953 | 27 | 182 | 9.7 | 25.7 | 0.00 | 0.00 | 0.00 | 68 | 1004.8 |
| 20260505222857 | 27 | 210 | 11.3 | 30.6 | 0.00 | 0.00 | 0.00 | 68 | 1004.8 |
| 20260505222800 | 27 | 200 | 12.9 | 30.6 | 0.00 | 0.00 | 0.00 | 68 | 1004.7 |
| 20260505222704 | 27 | 237 | 12.9 | 30.6 | 0.00 | 0.00 | 0.00 | 68 | 1004.8 |
| 20260505222551 | 27 | 159 | 11.3 | 30.6 | 0.00 | 0.00 | 0.00 | 68 | 1004.8 |
| 20260505222455 | 27 | 173 | 11.3 | 30.6 | 0.00 | 0.00 | 0.00 | 69 | 1004.8 |
| 20260505222358 | 27 | 163 | 11.3 | 30.6 | 0.00 | 0.00 | 0.00 | 69 | 1004.9 |
| 20260505222305 | 27 | 229 | 12.9 | 30.6 | 0.00 | 0.00 | 0.00 | 68 | 1004.8 |
| 20260505222207 | 27 | 211 | 14.5 | 30.6 | 0.00 | 0.00 | 0.00 | 67 | 1004.9 |
| 20260505222050 | 27 | 199 | 11.3 | 30.6 | 0.00 | 0.00 | 0.00 | 67 | 1005.0 |
| 20260505221957 | 28 | 188 | 8.0 | 22.5 | 0.00 | 0.00 | 0.00 | 68 | 1005.0 |
| 20260505221900 | 27 | 206 | 11.3 | 25.7 | 0.00 | 0.00 | 0.00 | 68 | 1004.9 |
| 20260505221804 | 27 | 161 | 12.9 | 25.7 | 0.00 | 0.00 | 0.00 | 67 | 1004.9 |
| 20260505221707 | 27 | 136 | 11.3 | 25.7 | 0.00 | 0.00 | 0.00 | 68 | 1004.9 |
| 20260505221551 | 27 | 176 | 11.3 | 25.7 | 0.00 | 0.00 | 0.00 | 68 | 1004.9 |
| 20260505221514 | 27 | 154 | 11.3 | 25.7 | 0.00 | 0.00 | 0.00 | 68 | 1004.9 |
| 20260505221356 | 27 | 153 | 11.3 | 25.7 | 0.00 | 0.00 | 0.00 | 68 | 1004.9 |
| 20260505221325 | 27 | 178 | 12.9 | 25.7 | 0.00 | 0.00 | 0.00 | 68 | 1004.9 |
| 20260505221148 | 27 | 181 | 12.9 | 25.7 | 0.00 | 0.00 | 0.00 | 69 | 1004.9 |
| 20260505221052 | 27 | 176 | 12.9 | 25.7 | 0.00 | 0.00 | 0.00 | 69 | 1004.9 |
| 20260505220955 | 27 | 205 | 9.7 | 24.1 | 0.00 | 0.00 | 0.00 | 68 | 1004.9 |
| 20260505220919 | 27 | 173 | 11.3 | 24.1 | 0.00 | 0.00 | 0.00 | 67 | 1004.9 |
| 20260505220804 | 27 | 188 | 14.5 | 24.1 | 0.00 | 0.00 | 0.00 | 67 | 1004.8 |
| 20260505220651 | 28 | 176 | 12.9 | 27.4 | 0.00 | 0.00 | 0.00 | 67 | 1004.9 |
| 20260505220614 | 28 | 161 | 9.7 | 25.7 | 0.00 | 0.00 | 0.00 | 67 | 1004.9 |
| 20260505220450 | 28 | 163 | 6.4 | 17.7 | 0.00 | 0.00 | 0.00 | 67 | 1004.9 |
| 20260505220354 | 28 | 177 | 6.4 | 17.7 | 0.00 | 0.00 | 0.00 | 67 | 1004.9 |
| 20260505220257 | 28 | 144 | 8.0 | 17.7 | 0.00 | 0.00 | 0.00 | 67 | 1005.0 |
| 20260505220201 | 28 | 194 | 8.0 | 17.7 | 0.00 | 0.00 | 0.00 | 67 | 1005.0 |
| 20260505220048 | 28 | 163 | 8.0 | 17.7 | 0.00 | 0.00 | 0.00 | 67 | 1005.0 |
| 20260505215952 | 28 | 134 | 9.7 | 20.9 | 0.00 | 0.00 | 0.00 | 67 | 1005.0 |
| 20260505215856 | 28 | 167 | 9.7 | 17.7 | 0.00 | 0.00 | 0.00 | 68 | 1004.9 |
| 20260505215800 | 28 | 189 | 11.3 | 22.5 | 0.00 | 0.00 | 0.00 | 68 | 1005.0 |
| 20260505215723 | 28 | 204 | 9.7 | 22.5 | 0.00 | 0.00 | 0.00 | 67 | 1005.0 |
| 20260505215605 | 28 | 178 | 9.7 | 25.7 | 0.00 | 0.00 | 0.00 | 67 | 1005.0 |
| 20260505215449 | 28 | 180 | 8.0 | 25.7 | 0.00 | 0.00 | 0.00 | 68 | 1005.1 |
| 20260505215357 | 27 | 190 | 4.8 | 30.6 | 0.00 | 0.00 | 0.00 | 68 | 1005.1 |
| 20260505215300 | 27 | 166 | 6.4 | 30.6 | 0.00 | 0.00 | 0.00 | 68 | 1005.1 |
| 20260505215203 | 27 | 196 | 8.0 | 30.6 | 0.00 | 0.00 | 0.00 | 68 | 1005.0 |
| 20260505215106 | 27 | 198 | 11.3 | 30.6 | 0.00 | 0.00 | 0.00 | 67 | 1005.0 |
| 20260505214949 | 27 | 183 | 14.5 | 30.6 | 0.00 | 0.00 | 0.00 | 67 | 1005.0 |
| 20260505214852 | 27 | 217 | 14.5 | 30.6 | 0.00 | 0.00 | 0.00 | 66 | 1005.0 |
| 20260505214800 | 27 | 171 | 16.1 | 30.6 | 0.00 | 0.00 | 0.00 | 67 | 1005.0 |
| 20260505214724 | 27 | 187 | 14.5 | 30.6 | 0.00 | 0.00 | 0.00 | 67 | 1005.0 |
| 20260505214626 | 27 | 161 | 14.5 | 32.2 | 0.00 | 0.00 | 0.00 | 67 | 1005.1 |
| 20260505214449 | 27 | 249 | 16.1 | 32.2 | 0.00 | 0.00 | 0.00 | 68 | 1005.0 |
| 20260505214352 | 27 | 252 | 14.5 | 32.2 | 0.00 | 0.00 | 0.00 | 67 | 1005.0 |
| 20260505214255 | 27 | 207 | 12.9 | 32.2 | 0.00 | 0.00 | 0.00 | 68 | 1005.1 |
| 20260505214159 | 27 | 173 | 12.9 | 32.2 | 0.00 | 0.00 | 0.00 | 68 | 1005.2 |
| 20260505214106 | 27 | 150 | 12.9 | 32.2 | 0.00 | 0.00 | 0.00 | 68 | 1005.1 |
| 20260505213950 | 27 | 186 | 14.5 | 32.2 | 0.00 | 0.00 | 0.00 | 67 | 1005.2 |
| 20260505213854 | 27 | 220 | 17.7 | 32.2 | 0.00 | 0.00 | 0.00 | 67 | 1005.2 |
| 20260505213758 | 27 | 212 | 16.1 | 32.2 | 0.00 | 0.00 | 0.00 | 67 | 1005.2 |
| 20260505213722 | 27 | 139 | 12.9 | 33.8 | 0.00 | 0.00 | 0.00 | 67 | 1005.3 |
| 20260505213604 | 28 | 157 | 11.3 | 27.4 | 0.00 | 0.00 | 0.00 | 66 | 1005.2 |
| 20260505213451 | 28 | 126 | 11.3 | 27.4 | 0.00 | 0.00 | 0.00 | 66 | 1005.3 |
| 20260505213354 | 28 | 194 | 11.3 | 27.4 | 0.00 | 0.00 | 0.00 | 67 | 1005.3 |
| 20260505213257 | 28 | 153 | 11.3 | 29.0 | 0.00 | 0.00 | 0.00 | 68 | 1005.4 |
| 20260505213201 | 28 | 179 | 14.5 | 29.0 | 0.00 | 0.00 | 0.00 | 67 | 1005.4 |
| 20260505213105 | 28 | 188 | 16.1 | 29.0 | 0.00 | 0.00 | 0.00 | 67 | 1005.4 |
| 20260505212949 | 28 | 190 | 12.9 | 38.6 | 0.00 | 0.00 | 0.00 | 67 | 1005.3 |
| 20260505212858 | 28 | 216 | 11.3 | 38.6 | 0.00 | 0.00 | 0.00 | 66 | 1005.3 |
| 20260505212801 | 28 | 242 | 12.9 | 38.6 | 0.00 | 0.00 | 0.00 | 67 | 1005.3 |
| 20260505212705 | 27 | 234 | 14.5 | 38.6 | 0.00 | 0.00 | 0.00 | 66 | 1005.3 |
| 20260505212550 | 27 | 225 | 14.5 | 38.6 | 0.00 | 0.00 | 0.00 | 67 | 1005.3 |
| 20260505212453 | 27 | 202 | 12.9 | 38.6 | 0.00 | 0.00 | 0.00 | 67 | 1005.3 |
| 20260505212356 | 27 | 230 | 16.1 | 38.6 | 0.00 | 0.00 | 0.00 | 67 | 1005.3 |
| 20260505212306 | 27 | 213 | 19.3 | 38.6 | 0.00 | 0.00 | 0.00 | 67 | 1005.3 |
| 20260505212148 | 27 | 180 | 22.5 | 38.6 | 0.00 | 0.00 | 0.00 | 66 | 1005.4 |
| 20260505212051 | 27 | 178 | 17.7 | 30.6 | 0.00 | 0.00 | 0.00 | 65 | 1005.4 |
| 20260505212016 | 28 | 176 | 12.9 | 32.2 | 0.00 | 0.00 | 0.00 | 67 | 1005.4 |
| 20260505211917 | 28 | 203 | 12.9 | 32.2 | 0.00 | 0.00 | 0.00 | 66 | 1005.3 |
| 20260505211800 | 27 | 186 | 11.3 | 32.2 | 0.00 | 0.00 | 0.00 | 67 | 1005.4 |
| 20260505211725 | 27 | 209 | 14.5 | 32.2 | 0.00 | 0.00 | 0.00 | 66 | 1005.3 |
| 20260505211551 | 27 | 203 | 14.5 | 32.2 | 0.00 | 0.00 | 0.00 | 66 | 1005.3 |
| 20260505211515 | 27 | 231 | 11.3 | 32.2 | 0.00 | 0.00 | 0.00 | 67 | 1005.4 |
| 20260505211357 | 27 | 195 | 12.9 | 32.2 | 0.00 | 0.00 | 0.00 | 67 | 1005.3 |
| 20260505211301 | 27 | 192 | 12.9 | 32.2 | 0.00 | 0.00 | 0.00 | 67 | 1005.4 |
| 20260505211204 | 27 | 224 | 11.3 | 32.2 | 0.00 | 0.00 | 0.00 | 67 | 1005.4 |
| 20260505211048 | 27 | 178 | 12.9 | 33.8 | 0.00 | 0.00 | 0.00 | 67 | 1005.5 |
| 20260505211011 | 27 | 213 | 14.5 | 35.4 | 0.00 | 0.00 | 0.00 | 67 | 1005.5 |
| 20260505210858 | 27 | 233 | 17.7 | 35.4 | 0.00 | 0.00 | 0.00 | 67 | 1005.5 |
| 20260505210800 | 27 | 217 | 19.3 | 35.4 | 0.00 | 0.00 | 0.00 | 66 | 1005.5 |
| 20260505210705 | 27 | 222 | 17.7 | 35.4 | 0.00 | 0.00 | 0.00 | 66 | 1005.4 |
| 20260505210548 | 28 | 222 | 19.3 | 35.4 | 0.00 | 0.00 | 0.00 | 66 | 1005.4 |
| 20260505210453 | 28 | 217 | 17.7 | 35.4 | 0.00 | 0.00 | 0.00 | 66 | 1005.4 |
| 20260505210415 | 28 | 203 | 16.1 | 35.4 | 0.00 | 0.00 | 0.00 | 65 | 1005.4 |
| 20260505210302 | 28 | 221 | 17.7 | 35.4 | 0.00 | 0.00 | 0.00 | 67 | 1005.6 |
| 20260505210205 | 28 | 188 | 16.1 | 35.4 | 0.00 | 0.00 | 0.00 | 66 | 1005.5 |
| 20260505210049 | 27 | 161 | 11.3 | 27.4 | 0.00 | 0.00 | 0.00 | 68 | 1005.6 |
| 20260505205952 | 27 | 192 | 11.3 | 27.4 | 0.00 | 0.00 | 0.00 | 68 | 1005.6 |
| 20260505205856 | 27 | 202 | 14.5 | 27.4 | 0.00 | 0.00 | 0.00 | 68 | 1005.6 |
| 20260505205759 | 27 | 205 | 19.3 | 33.8 | 0.00 | 0.00 | 0.00 | 67 | 1005.7 |
| 20260505205702 | 27 | 201 | 14.5 | 33.8 | 0.00 | 0.00 | 0.00 | 67 | 1005.7 |
| 20260505205609 | 27 | 162 | 11.3 | 33.8 | 0.00 | 0.00 | 0.00 | 67 | 1005.7 |
| 20260505205512 | 27 | 189 | 14.5 | 33.8 | 0.00 | 0.00 | 0.00 | 67 | 1005.7 |
| 20260505205348 | 27 | 200 | 16.1 | 33.8 | 0.00 | 0.00 | 0.00 | 68 | 1005.7 |
| 20260505205252 | 27 | 223 | 17.7 | 33.8 | 0.00 | 0.00 | 0.00 | 68 | 1005.7 |
| 20260505205155 | 27 | 221 | 16.1 | 33.8 | 0.00 | 0.00 | 0.00 | 67 | 1005.7 |
| 20260505205058 | 27 | 209 | 17.7 | 33.8 | 0.00 | 0.00 | 0.00 | 67 | 1005.7 |
| 20260505205021 | 27 | 201 | 16.1 | 33.8 | 0.00 | 0.00 | 0.00 | 67 | 1005.6 |
| 20260505204848 | 27 | 154 | 14.5 | 32.2 | 0.00 | 0.00 | 0.00 | 67 | 1005.7 |
| 20260505204751 | 27 | 195 | 16.1 | 32.2 | 0.00 | 0.00 | 0.00 | 67 | 1005.8 |
| 20260505204655 | 27 | 183 | 16.1 | 32.2 | 0.00 | 0.00 | 0.00 | 68 | 1005.8 |
| 20260505204557 | 27 | 232 | 17.7 | 32.2 | 0.00 | 0.00 | 0.00 | 68 | 1005.7 |
| 20260505204502 | 27 | 186 | 17.7 | 32.2 | 0.00 | 0.00 | 0.00 | 68 | 1005.7 |
| 20260505204405 | 27 | 214 | 14.5 | 37.0 | 0.00 | 0.00 | 0.00 | 67 | 1005.8 |
| 20260505204312 | 27 | 234 | 16.1 | 37.0 | 0.00 | 0.00 | 0.00 | 67 | 1005.8 |
| 20260505204149 | 27 | 205 | 16.1 | 37.0 | 0.00 | 0.00 | 0.00 | 67 | 1005.8 |
| 20260505204053 | 27 | 236 | 12.9 | 37.0 | 0.00 | 0.00 | 0.00 | 67 | 1005.8 |
| 20260505203955 | 27 | 195 | 11.3 | 37.0 | 0.00 | 0.00 | 0.00 | 66 | 1005.9 |
| 20260505203859 | 27 | 195 | 11.3 | 37.0 | 0.00 | 0.00 | 0.00 | 67 | 1005.9 |
| 20260505203805 | 27 | 173 | 14.5 | 37.0 | 0.00 | 0.00 | 0.00 | 67 | 1005.9 |
| 20260505203651 | 28 | 177 | 14.5 | 37.0 | 0.00 | 0.00 | 0.00 | 66 | 1006.0 |
| 20260505203555 | 27 | 168 | 12.9 | 29.0 | 0.00 | 0.00 | 0.00 | 66 | 1005.9 |
| 20260505203458 | 27 | 174 | 12.9 | 29.0 | 0.00 | 0.00 | 0.00 | 66 | 1005.9 |
| 20260505203402 | 28 | 155 | 14.5 | 29.0 | 0.00 | 0.00 | 0.00 | 67 | 1006.0 |
| 20260505203305 | 27 | 232 | 17.7 | 29.0 | 0.00 | 0.00 | 0.00 | 67 | 1006.0 |
| 20260505203149 | 28 | 219 | 19.3 | 29.0 | 0.00 | 0.00 | 0.00 | 66 | 1006.0 |
| 20260505203055 | 28 | 196 | 16.1 | 25.7 | 0.00 | 0.00 | 0.00 | 66 | 1006.0 |
| 20260505202959 | 28 | 207 | 14.5 | 25.7 | 0.00 | 0.00 | 0.00 | 67 | 1006.1 |
| 20260505202901 | 28 | 165 | 12.9 | 25.7 | 0.00 | 0.00 | 0.00 | 67 | 1006.1 |
| 20260505202804 | 28 | 188 | 9.7 | 25.7 | 0.00 | 0.00 | 0.00 | 66 | 1006.1 |
| 20260505202648 | 27 | 196 | 12.9 | 25.7 | 0.00 | 0.00 | 0.00 | 68 | 1006.1 |
| 20260505202550 | 27 | 164 | 16.1 | 25.7 | 0.00 | 0.00 | 0.00 | 67 | 1006.1 |
| 20260505202454 | 27 | 209 | 17.7 | 25.7 | 0.00 | 0.00 | 0.00 | 66 | 1006.1 |
| 20260505202417 | 27 | 202 | 17.7 | 27.4 | 0.00 | 0.00 | 0.00 | 67 | 1006.2 |
| 20260505202306 | 27 | 231 | 17.7 | 27.4 | 0.00 | 0.00 | 0.00 | 68 | 1006.2 |
| 20260505202227 | 27 | 222 | 11.3 | 27.4 | 0.00 | 0.00 | 0.00 | 70 | 1006.2 |
| 20260505202108 | 27 | 178 | 8.0 | 27.4 | 0.00 | 0.00 | 0.00 | 70 | 1006.2 |
| 20260505201952 | 27 | 178 | 9.7 | 27.4 | 0.00 | 0.00 | 0.00 | 70 | 1006.3 |
| 20260505201855 | 27 | 206 | 11.3 | 27.4 | 0.00 | 0.00 | 0.00 | 70 | 1006.3 |
| 20260505201758 | 27 | 215 | 12.9 | 27.4 | 0.00 | 0.00 | 0.00 | 70 | 1006.4 |
| 20260505201702 | 27 | 225 | 14.5 | 27.4 | 0.00 | 0.00 | 0.00 | 70 | 1006.4 |
| 20260505201550 | 27 | 192 | 11.3 | 27.4 | 0.00 | 0.00 | 0.00 | 70 | 1006.3 |
| 20260505201453 | 27 | 200 | 6.4 | 27.4 | 0.00 | 0.00 | 0.00 | 70 | 1006.3 |
| 20260505201357 | 27 | 213 | 6.4 | 22.5 | 0.00 | 0.00 | 0.00 | 70 | 1006.3 |
| 20260505201300 | 27 | 202 | 9.7 | 22.5 | 0.00 | 0.00 | 0.00 | 69 | 1006.3 |
| 20260505201204 | 27 | 174 | 12.9 | 22.5 | 0.00 | 0.00 | 0.00 | 69 | 1006.4 |
| 20260505201051 | 27 | 200 | 12.9 | 20.9 | 0.00 | 0.00 | 0.00 | 69 | 1006.4 |
| 20260505200956 | 27 | 217 | 9.7 | 20.9 | 0.00 | 0.00 | 0.00 | 71 | 1006.4 |
| 20260505200859 | 27 | 213 | 8.0 | 20.9 | 0.00 | 0.00 | 0.00 | 70 | 1006.4 |
| 20260505200803 | 27 | 187 | 8.0 | 22.5 | 0.00 | 0.00 | 0.00 | 69 | 1006.4 |
| 20260505200708 | 27 | 135 | 11.3 | 22.5 | 0.00 | 0.00 | 0.00 | 69 | 1006.4 |
| 20260505200551 | 27 | 171 | 11.3 | 25.7 | 0.00 | 0.00 | 0.00 | 69 | 1006.3 |
| 20260505200514 | 27 | 162 | 9.7 | 25.7 | 0.00 | 0.00 | 0.00 | 69 | 1006.3 |
| 20260505200400 | 27 | 155 | 9.7 | 25.7 | 0.00 | 0.00 | 0.00 | 69 | 1006.3 |
| 20260505200304 | 27 | 223 | 9.7 | 29.0 | 0.00 | 0.00 | 0.00 | 69 | 1006.4 |
| 20260505200228 | 27 | 221 | 11.3 | 29.0 | 0.00 | 0.00 | 0.00 | 69 | 1006.4 |
| 20260505200110 | 27 | 225 | 12.9 | 29.0 | 0.00 | 0.00 | 0.00 | 69 | 1006.4 |
| 20260505195953 | 27 | 186 | 12.9 | 29.0 | 0.00 | 0.00 | 0.00 | 68 | 1006.4 |
| 20260505195858 | 27 | 213 | 14.5 | 29.0 | 0.00 | 0.00 | 0.00 | 69 | 1006.4 |
| 20260505195822 | 27 | 227 | 16.1 | 29.0 | 0.00 | 0.00 | 0.00 | 68 | 1006.3 |
| 20260505195648 | 27 | 235 | 19.3 | 29.0 | 0.00 | 0.00 | 0.00 | 68 | 1006.4 |
| 20260505195612 | 27 | 246 | 20.9 | 29.0 | 0.00 | 0.00 | 0.00 | 69 | 1006.4 |
| 20260505195514 | 27 | 238 | 19.3 | 30.6 | 0.00 | 0.00 | 0.00 | 69 | 1006.4 |
| 20260505195356 | 27 | 216 | 17.7 | 24.1 | 0.00 | 0.00 | 0.00 | 69 | 1006.4 |
| 20260505195259 | 27 | 231 | 17.7 | 24.1 | 0.00 | 0.00 | 0.00 | 69 | 1006.4 |
| 20260505195203 | 27 | 239 | 14.5 | 27.4 | 0.00 | 0.00 | 0.00 | 70 | 1006.4 |
| 20260505195127 | 27 | 242 | 9.7 | 25.7 | 0.00 | 0.00 | 0.00 | 70 | 1006.5 |
| 20260505194953 | 27 | 213 | 9.7 | 25.7 | 0.00 | 0.00 | 0.00 | 70 | 1006.5 |
| 20260505194856 | 27 | 215 | 9.7 | 25.7 | 0.00 | 0.00 | 0.00 | 70 | 1006.5 |
| 20260505194800 | 27 | 182 | 9.7 | 25.7 | 0.00 | 0.00 | 0.00 | 70 | 1006.5 |
| 20260505194703 | 27 | 221 | 14.5 | 30.6 | 0.00 | 0.00 | 0.00 | 70 | 1006.5 |
| 20260505194607 | 27 | 224 | 12.9 | 30.6 | 0.00 | 0.00 | 0.00 | 70 | 1006.6 |
| 20260505194510 | 27 | 190 | 9.7 | 30.6 | 0.00 | 0.00 | 0.00 | 69 | 1006.6 |
| 20260505194353 | 27 | 188 | 11.3 | 30.6 | 0.00 | 0.00 | 0.00 | 69 | 1006.6 |
| 20260505194257 | 27 | 188 | 12.9 | 30.6 | 0.00 | 0.00 | 0.00 | 69 | 1006.5 |
| 20260505194201 | 27 | 200 | 9.7 | 30.6 | 0.00 | 0.00 | 0.00 | 70 | 1006.6 |
| 20260505194104 | 27 | 195 | 8.0 | 30.6 | 0.00 | 0.00 | 0.00 | 70 | 1006.7 |
| 20260505193948 | 27 | 228 | 12.9 | 30.6 | 0.00 | 0.00 | 0.00 | 70 | 1006.7 |
| 20260505193851 | 27 | 183 | 12.9 | 30.6 | 0.00 | 0.00 | 0.00 | 69 | 1006.7 |
| 20260505193755 | 27 | 179 | 9.7 | 30.6 | 0.00 | 0.00 | 0.00 | 70 | 1006.7 |
| 20260505193704 | 27 | 207 | 6.4 | 25.7 | 0.00 | 0.00 | 0.00 | 71 | 1006.7 |
| 20260505193606 | 26 | 227 | 9.7 | 25.7 | 0.00 | 0.00 | 0.00 | 71 | 1006.7 |
| 20260505193510 | 26 | 183 | 14.5 | 27.4 | 0.00 | 0.00 | 0.00 | 70 | 1006.7 |
| 20260505193352 | 26 | 177 | 16.1 | 29.0 | 0.00 | 0.00 | 0.00 | 70 | 1006.7 |
| 20260505193256 | 26 | 182 | 14.5 | 29.0 | 0.00 | 0.00 | 0.00 | 70 | 1006.8 |
| 20260505193219 | 26 | 171 | 12.9 | 29.0 | 0.00 | 0.00 | 0.00 | 70 | 1006.7 |
| 20260505193101 | 26 | 197 | 14.5 | 29.0 | 0.00 | 0.00 | 0.00 | 70 | 1006.8 |
| 20260505192949 | 26 | 235 | 17.7 | 29.0 | 0.00 | 0.00 | 0.00 | 70 | 1006.7 |
| 20260505192852 | 26 | 234 | 16.1 | 29.0 | 0.00 | 0.00 | 0.00 | 70 | 1006.7 |
| 20260505192755 | 27 | 236 | 17.7 | 29.0 | 0.00 | 0.00 | 0.00 | 70 | 1006.7 |
| 20260505192659 | 27 | 236 | 17.7 | 29.0 | 0.00 | 0.00 | 0.00 | 69 | 1006.7 |
| 20260505192602 | 27 | 196 | 17.7 | 29.0 | 0.00 | 0.00 | 0.00 | 69 | 1006.6 |
| 20260505192506 | 27 | 197 | 14.5 | 29.0 | 0.00 | 0.00 | 0.00 | 70 | 1006.7 |
| 20260505192414 | 27 | 196 | 9.7 | 27.4 | 0.00 | 0.00 | 0.00 | 71 | 1006.7 |
| 20260505192257 | 27 | 204 | 11.3 | 27.4 | 0.00 | 0.00 | 0.00 | 70 | 1006.7 |
| 20260505192200 | 27 | 207 | 12.9 | 27.4 | 0.00 | 0.00 | 0.00 | 70 | 1006.7 |
| 20260505192103 | 27 | 161 | 12.9 | 27.4 | 0.00 | 0.00 | 0.00 | 69 | 1006.7 |
| 20260505191948 | 27 | 183 | 12.9 | 25.7 | 0.00 | 0.00 | 0.00 | 70 | 1006.7 |
| 20260505191851 | 27 | 196 | 11.3 | 25.7 | 0.00 | 0.00 | 0.00 | 69 | 1006.7 |
| 20260505191759 | 27 | 198 | 12.9 | 29.0 | 0.00 | 0.00 | 0.00 | 69 | 1006.7 |
| 20260505191702 | 27 | 200 | 14.5 | 29.0 | 0.00 | 0.00 | 0.00 | 68 | 1006.7 |
| 20260505191606 | 27 | 198 | 17.7 | 29.0 | 0.00 | 0.00 | 0.00 | 68 | 1006.7 |
| 20260505191450 | 27 | 190 | 16.1 | 29.0 | 0.00 | 0.00 | 0.00 | 70 | 1006.7 |
| 20260505191414 | 27 | 221 | 12.9 | 29.0 | 0.00 | 0.00 | 0.00 | 70 | 1006.7 |
| 20260505191256 | 27 | 223 | 16.1 | 29.0 | 0.00 | 0.00 | 0.00 | 69 | 1006.8 |
| 20260505191200 | 27 | 220 | 14.5 | 29.0 | 0.00 | 0.00 | 0.00 | 69 | 1006.7 |
| 20260505191047 | 27 | 238 | 12.9 | 24.1 | 0.00 | 0.00 | 0.00 | 70 | 1006.7 |
| 20260505190951 | 27 | 233 | 12.9 | 24.1 | 0.00 | 0.00 | 0.00 | 70 | 1006.7 |
| 20260505190853 | 26 | 203 | 16.1 | 25.7 | 0.00 | 0.00 | 0.00 | 70 | 1006.7 |
| 20260505190756 | 27 | 218 | 14.5 | 25.7 | 0.00 | 0.00 | 0.00 | 69 | 1006.7 |
| 20260505190701 | 27 | 223 | 9.7 | 25.7 | 0.00 | 0.00 | 0.00 | 73 | 1006.7 |
| 20260505190603 | 26 | 215 | 8.0 | 25.7 | 0.00 | 0.00 | 0.00 | 71 | 1006.8 |
| 20260505190512 | 26 | 186 | 9.7 | 25.7 | 0.00 | 0.00 | 0.00 | 71 | 1006.8 |
| 20260505190348 | 26 | 188 | 9.7 | 25.7 | 0.00 | 0.00 | 0.00 | 71 | 1006.8 |
| 20260505190251 | 26 | 207 | 9.7 | 25.7 | 0.00 | 0.00 | 0.00 | 71 | 1006.8 |
| 20260505190155 | 26 | 242 | 14.5 | 25.7 | 0.00 | 0.00 | 0.00 | 72 | 1006.8 |
| 20260505190059 | 26 | 201 | 16.1 | 25.7 | 0.00 | 0.00 | 0.00 | 71 | 1006.8 |
| 20260505190003 | 26 | 217 | 17.7 | 25.7 | 0.00 | 0.00 | 0.00 | 71 | 1006.9 |
| 20260505185851 | 26 | 212 | 16.1 | 27.4 | 0.00 | 0.00 | 0.00 | 71 | 1006.9 |
| 20260505185754 | 26 | 181 | 12.9 | 25.7 | 0.00 | 0.00 | 0.00 | 72 | 1007.0 |
| 20260505185658 | 26 | 184 | 12.9 | 22.5 | 0.00 | 0.00 | 0.00 | 72 | 1007.0 |
| 20260505185602 | 26 | 182 | 11.3 | 22.5 | 0.00 | 0.00 | 0.00 | 71 | 1007.0 |
| 20260505185506 | 26 | 188 | 9.7 | 22.5 | 0.00 | 0.00 | 0.00 | 72 | 1007.0 |
| 20260505185350 | 26 | 232 | 9.7 | 22.5 | 0.00 | 0.00 | 0.00 | 72 | 1007.1 |
| 20260505185259 | 26 | 209 | 9.7 | 22.5 | 0.00 | 0.00 | 0.00 | 72 | 1007.1 |
| 20260505185203 | 26 | 207 | 11.3 | 22.5 | 0.00 | 0.00 | 0.00 | 71 | 1007.1 |
| 20260505185107 | 26 | 195 | 11.3 | 22.5 | 0.00 | 0.00 | 0.00 | 71 | 1007.1 |
| 20260505184951 | 26 | 159 | 12.9 | 24.1 | 0.00 | 0.00 | 0.00 | 71 | 1007.1 |
| 20260505184855 | 26 | 209 | 14.5 | 22.5 | 0.00 | 0.00 | 0.00 | 71 | 1007.1 |
| 20260505184758 | 26 | 222 | 9.7 | 22.5 | 0.00 | 0.00 | 0.00 | 71 | 1007.1 |
| 20260505184705 | 26 | 222 | 8.0 | 22.5 | 0.00 | 0.00 | 0.00 | 71 | 1007.1 |
| 20260505184629 | 26 | 223 | 12.9 | 22.5 | 0.00 | 0.00 | 0.00 | 71 | 1007.2 |
| 20260505184511 | 26 | 207 | 12.9 | 22.5 | 0.00 | 0.00 | 0.00 | 72 | 1007.2 |
| 20260505184414 | 26 | 224 | 9.7 | 22.5 | 0.00 | 0.00 | 0.00 | 72 | 1007.1 |
| 20260505184249 | 26 | 215 | 11.3 | 22.5 | 0.00 | 0.00 | 0.00 | 72 | 1007.2 |
| 20260505184153 | 26 | 203 | 12.9 | 22.5 | 0.00 | 0.00 | 0.00 | 73 | 1007.2 |
| 20260505184117 | 26 | 244 | 12.9 | 22.5 | 0.00 | 0.00 | 0.00 | 72 | 1007.1 |
| 20260505184003 | 26 | 209 | 12.9 | 22.5 | 0.00 | 0.00 | 0.00 | 72 | 1007.2 |
| 20260505183907 | 26 | 234 | 12.9 | 22.5 | 0.00 | 0.00 | 0.00 | 72 | 1007.1 |
| 20260505183752 | 26 | 223 | 14.5 | 22.5 | 0.00 | 0.00 | 0.00 | 72 | 1007.1 |
| 20260505183656 | 26 | 223 | 14.5 | 24.1 | 0.00 | 0.00 | 0.00 | 72 | 1007.1 |
| 20260505183559 | 26 | 213 | 14.5 | 22.5 | 0.00 | 0.00 | 0.00 | 71 | 1007.1 |
| 20260505183503 | 26 | 217 | 11.3 | 22.5 | 0.00 | 0.00 | 0.00 | 72 | 1007.1 |
| 20260505183351 | 26 | 248 | 9.7 | 24.1 | 0.00 | 0.00 | 0.00 | 73 | 1007.1 |
| 20260505183314 | 26 | 218 | 12.9 | 24.1 | 0.00 | 0.00 | 0.00 | 71 | 1007.1 |
| 20260505183157 | 26 | 207 | 12.9 | 24.1 | 0.00 | 0.00 | 0.00 | 71 | 1007.2 |
| 20260505183100 | 26 | 227 | 12.9 | 24.1 | 0.00 | 0.00 | 0.00 | 72 | 1007.3 |
| 20260505183003 | 26 | 217 | 8.0 | 24.1 | 0.00 | 0.00 | 0.00 | 72 | 1007.2 |
| 20260505182907 | 26 | 210 | 8.0 | 24.1 | 0.00 | 0.00 | 0.00 | 73 | 1007.3 |
| 20260505182754 | 26 | 200 | 12.9 | 24.1 | 0.00 | 0.00 | 0.00 | 74 | 1007.3 |
| 20260505182658 | 26 | 234 | 14.5 | 24.1 | 0.00 | 0.00 | 0.00 | 73 | 1007.3 |
| 20260505182600 | 26 | 227 | 14.5 | 24.1 | 0.00 | 0.00 | 0.00 | 73 | 1007.3 |
| 20260505182525 | 26 | 219 | 11.3 | 19.3 | 0.00 | 0.00 | 0.00 | 73 | 1007.4 |
| 20260505182348 | 26 | 223 | 9.7 | 19.3 | 0.00 | 0.00 | 0.00 | 73 | 1007.4 |
| 20260505182251 | 26 | 229 | 8.0 | 19.3 | 0.00 | 0.00 | 0.00 | 75 | 1007.4 |
| 20260505182155 | 25 | 247 | 8.0 | 19.3 | 0.00 | 0.00 | 0.00 | 74 | 1007.4 |
| 20260505182102 | 25 | 216 | 6.4 | 24.1 | 0.00 | 0.00 | 0.00 | 74 | 1007.4 |
| 20260505182006 | 25 | 204 | 11.3 | 24.1 | 0.00 | 0.00 | 0.00 | 74 | 1007.4 |
| 20260505181850 | 25 | 219 | 12.9 | 24.1 | 0.00 | 0.00 | 0.00 | 73 | 1007.4 |
| 20260505181814 | 25 | 232 | 11.3 | 24.1 | 0.00 | 0.00 | 0.00 | 73 | 1007.4 |
| 20260505181649 | 25 | 242 | 11.3 | 24.1 | 0.00 | 0.00 | 0.00 | 74 | 1007.4 |
| 20260505181553 | 25 | 206 | 11.3 | 24.1 | 0.00 | 0.00 | 0.00 | 74 | 1007.4 |
| 20260505181500 | 25 | 213 | 11.3 | 24.1 | 0.00 | 0.00 | 0.00 | 74 | 1007.4 |
| 20260505181404 | 25 | 238 | 14.5 | 24.1 | 0.00 | 0.00 | 0.00 | 74 | 1007.4 |
| 20260505181327 | 25 | 262 | 14.5 | 24.1 | 0.00 | 0.00 | 0.00 | 73 | 1007.3 |
| 20260505181150 | 25 | 259 | 14.5 | 24.1 | 0.00 | 0.00 | 0.00 | 74 | 1007.3 |
| 20260505181052 | 25 | 259 | 14.5 | 24.1 | 0.00 | 0.00 | 0.00 | 74 | 1007.3 |
| 20260505180955 | 25 | 234 | 14.5 | 24.1 | 0.00 | 0.00 | 0.00 | 75 | 1007.4 |
| 20260505180858 | 25 | 229 | 16.1 | 24.1 | 0.00 | 0.00 | 0.00 | 74 | 1007.3 |
| 20260505180807 | 25 | 234 | 12.9 | 24.1 | 0.00 | 0.00 | 0.00 | 74 | 1007.4 |
| 20260505180651 | 25 | 232 | 14.5 | 24.1 | 0.00 | 0.00 | 0.00 | 76 | 1007.4 |
| 20260505180553 | 25 | 220 | 14.5 | 24.1 | 0.00 | 0.00 | 0.00 | 76 | 1007.4 |
| 20260505180456 | 25 | 229 | 11.3 | 24.1 | 0.00 | 0.00 | 0.00 | 76 | 1007.4 |
| 20260505180401 | 25 | 236 | 9.7 | 24.1 | 0.00 | 0.00 | 0.00 | 77 | 1007.5 |
| 20260505180304 | 25 | 198 | 8.0 | 22.5 | 0.00 | 0.00 | 0.00 | 77 | 1007.6 |
| 20260505180212 | 24 | 205 | 11.3 | 22.5 | 0.00 | 0.00 | 0.00 | 77 | 1007.6 |
| 20260505180048 | 24 | 257 | 12.9 | 22.5 | 0.00 | 0.00 | 0.00 | 76 | 1007.7 |
| 20260505175952 | 24 | 227 | 12.9 | 22.5 | 0.00 | 0.00 | 0.00 | 77 | 1007.7 |
| 20260505175855 | 24 | 232 | 11.3 | 22.5 | 0.00 | 0.00 | 0.00 | 77 | 1007.7 |
| 20260505175818 | 24 | 225 | 12.9 | 22.5 | 0.00 | 0.00 | 0.00 | 77 | 1007.7 |
| 20260505175701 | 24 | 224 | 14.5 | 22.5 | 0.00 | 0.00 | 0.00 | 77 | 1007.8 |
| 20260505175548 | 24 | 220 | 16.1 | 22.5 | 0.00 | 0.00 | 0.00 | 78 | 1007.9 |
| 20260505175512 | 24 | 224 | 16.1 | 22.5 | 0.00 | 0.00 | 0.00 | 77 | 1007.9 |
| 20260505175348 | 24 | 241 | 14.5 | 22.5 | 0.00 | 0.00 | 0.00 | 77 | 1007.9 |
| 20260505175252 | 24 | 234 | 14.5 | 22.5 | 0.00 | 0.00 | 0.00 | 77 | 1007.9 |
| 20260505175155 | 24 | 231 | 12.9 | 22.5 | 0.00 | 0.00 | 0.00 | 77 | 1007.8 |
| 20260505175059 | 24 | 196 | 12.9 | 22.5 | 0.00 | 0.00 | 0.00 | 76 | 1007.9 |
| 20260505175007 | 24 | 236 | 12.9 | 19.3 | 0.00 | 0.00 | 0.00 | 76 | 1007.9 |
| 20260505174850 | 25 | 243 | 11.3 | 19.3 | 0.00 | 0.00 | 0.00 | 77 | 1007.9 |
| 20260505174753 | 25 | 223 | 9.7 | 19.3 | 0.00 | 0.00 | 0.00 | 78 | 1007.9 |
| 20260505174657 | 24 | 227 | 9.7 | 24.1 | 0.00 | 0.00 | 0.00 | 78 | 1007.8 |
| 20260505174620 | 24 | 272 | 9.7 | 25.7 | 0.00 | 0.00 | 0.00 | 79 | 1007.9 |
| 20260505174503 | 24 | 249 | 11.3 | 25.7 | 0.00 | 0.00 | 0.00 | 78 | 1007.8 |
| 20260505174404 | 24 | 169 | 12.9 | 25.7 | 0.00 | 0.00 | 0.00 | 78 | 1007.8 |
| 20260505174251 | 24 | 200 | 12.9 | 25.7 | 0.00 | 0.00 | 0.00 | 78 | 1007.8 |
| 20260505174153 | 24 | 199 | 14.5 | 25.7 | 0.00 | 0.00 | 0.00 | 78 | 1007.8 |
| 20260505174058 | 23 | 223 | 14.5 | 25.7 | 0.00 | 0.00 | 0.00 | 79 | 1007.7 |
| 20260505174000 | 23 | 215 | 16.1 | 25.7 | 0.00 | 0.00 | 0.00 | 78 | 1007.7 |
| 20260505173903 | 23 | 215 | 16.1 | 25.7 | 0.00 | 0.00 | 0.00 | 78 | 1007.8 |
| 20260505173806 | 23 | 238 | 16.1 | 25.7 | 0.00 | 0.00 | 0.00 | 78 | 1007.7 |
| 20260505173715 | 23 | 213 | 12.9 | 20.9 | 0.00 | 0.00 | 0.00 | 79 | 1007.8 |
| 20260505173557 | 23 | 217 | 14.5 | 20.9 | 0.00 | 0.00 | 0.00 | 80 | 1007.8 |
| 20260505173458 | 23 | 242 | 12.9 | 20.9 | 0.00 | 0.00 | 0.00 | 80 | 1007.8 |
| 20260505173422 | 23 | 229 | 11.3 | 20.9 | 0.00 | 0.00 | 0.00 | 80 | 1007.9 |
| 20260505173304 | 23 | 226 | 11.3 | 24.1 | 0.00 | 0.00 | 0.00 | 80 | 1007.9 |
| 20260505173149 | 23 | 206 | 12.9 | 24.1 | 0.00 | 0.00 | 0.00 | 80 | 1007.9 |
| 20260505173053 | 23 | 213 | 16.1 | 24.1 | 0.00 | 0.00 | 0.00 | 80 | 1007.9 |
| 20260505173000 | 23 | 234 | 16.1 | 27.4 | 0.00 | 0.00 | 0.00 | 80 | 1008.0 |
| 20260505172904 | 23 | 232 | 16.1 | 27.4 | 0.00 | 0.00 | 0.00 | 80 | 1008.0 |
| 20260505172807 | 23 | 224 | 16.1 | 27.4 | 0.00 | 0.00 | 0.00 | 80 | 1008.0 |
| 20260505172651 | 23 | 198 | 16.1 | 27.4 | 0.00 | 0.00 | 0.00 | 80 | 1008.0 |
| 20260505172614 | 23 | 218 | 14.5 | 27.4 | 0.00 | 0.00 | 0.00 | 80 | 1008.0 |
| 20260505172456 | 23 | 234 | 16.1 | 27.4 | 0.00 | 0.00 | 0.00 | 80 | 1008.1 |
| 20260505172400 | 23 | 236 | 17.7 | 27.4 | 0.00 | 0.00 | 0.00 | 80 | 1008.0 |
| 20260505172307 | 23 | 225 | 19.3 | 27.4 | 0.00 | 0.00 | 0.00 | 80 | 1008.2 |
| 20260505172151 | 23 | 234 | 16.1 | 27.4 | 0.00 | 0.00 | 0.00 | 80 | 1008.1 |
| 20260505172055 | 23 | 225 | 14.5 | 24.1 | 0.00 | 0.00 | 0.00 | 80 | 1008.1 |
| 20260505171958 | 23 | 223 | 14.5 | 24.1 | 0.00 | 0.00 | 0.00 | 80 | 1008.2 |
| 20260505171902 | 23 | 231 | 14.5 | 24.1 | 0.00 | 0.00 | 0.00 | 80 | 1008.2 |
| 20260505171750 | 23 | 217 | 14.5 | 24.1 | 0.00 | 0.00 | 0.00 | 80 | 1008.2 |
| 20260505171714 | 23 | 203 | 14.5 | 24.1 | 0.00 | 0.00 | 0.00 | 80 | 1008.2 |
| 20260505171550 | 23 | 234 | 14.5 | 24.1 | 0.00 | 0.00 | 0.00 | 80 | 1008.2 |
| 20260505171514 | 23 | 225 | 11.3 | 22.5 | 0.00 | 0.00 | 0.00 | 80 | 1008.2 |
| 20260505171357 | 23 | 246 | 9.7 | 20.9 | 0.00 | 0.00 | 0.00 | 81 | 1008.1 |
| 20260505171300 | 23 | 240 | 11.3 | 19.3 | 0.00 | 0.00 | 0.00 | 81 | 1008.2 |
| 20260505171203 | 23 | 205 | 12.9 | 19.3 | 0.00 | 0.00 | 0.00 | 81 | 1008.1 |
| 20260505171051 | 23 | 208 | 14.5 | 20.9 | 0.00 | 0.00 | 0.00 | 81 | 1008.1 |
| 20260505170954 | 23 | 221 | 14.5 | 20.9 | 0.00 | 0.00 | 0.00 | 81 | 1008.1 |
| 20260505170858 | 23 | 236 | 12.9 | 20.9 | 0.00 | 0.00 | 0.00 | 81 | 1008.2 |
| 20260505170800 | 23 | 225 | 14.5 | 20.9 | 0.00 | 0.00 | 0.00 | 81 | 1008.1 |
| 20260505170705 | 23 | 231 | 11.3 | 20.9 | 0.00 | 0.00 | 0.00 | 81 | 1008.2 |
| 20260505170607 | 23 | 221 | 9.7 | 20.9 | 0.00 | 0.00 | 0.00 | 81 | 1008.2 |
| 20260505170455 | 22 | 246 | 11.3 | 20.9 | 0.00 | 0.00 | 0.00 | 81 | 1008.2 |
| 20260505170419 | 22 | 219 | 14.5 | 25.7 | 0.00 | 0.00 | 0.00 | 81 | 1008.2 |
| 20260505170301 | 22 | 228 | 14.5 | 27.4 | 0.00 | 0.00 | 0.00 | 81 | 1008.2 |
| 20260505170226 | 22 | 217 | 14.5 | 27.4 | 0.00 | 0.00 | 0.00 | 81 | 1008.1 |
| 20260505170108 | 22 | 219 | 14.5 | 27.4 | 0.00 | 0.00 | 0.00 | 81 | 1008.1 |
| 20260505170032 | 22 | 220 | 14.5 | 27.4 | 0.00 | 0.00 | 0.00 | 81 | 1008.2 |
| 20260505165956 | 22 | 212 | 14.5 | 27.4 | 0.00 | 0.00 | 0.00 | 81 | 1008.2 |
| 20260505165816 | 22 | 229 | 16.1 | 27.4 | 0.00 | 0.00 | 0.00 | 82 | 1008.1 |
| 20260505165659 | 22 | 217 | 16.1 | 27.4 | 0.00 | 0.00 | 0.00 | 82 | 1008.1 |
| 20260505165607 | 22 | 223 | 17.7 | 27.4 | 0.00 | 0.00 | 0.00 | 82 | 1008.1 |
| 20260505165450 | 22 | 242 | 16.1 | 27.4 | 0.00 | 0.00 | 0.00 | 82 | 1008.2 |
| 20260505165354 | 22 | 229 | 17.7 | 27.4 | 0.00 | 0.00 | 0.00 | 81 | 1008.2 |
| 20260505165257 | 22 | 232 | 19.3 | 27.4 | 0.00 | 0.00 | 0.00 | 81 | 1008.2 |
| 20260505165201 | 22 | 231 | 16.1 | 25.7 | 0.00 | 0.00 | 0.00 | 82 | 1008.2 |
| 20260505165105 | 22 | 238 | 17.7 | 24.1 | 0.00 | 0.00 | 0.00 | 82 | 1008.1 |
| 20260505164955 | 22 | 224 | 14.5 | 24.1 | 0.00 | 0.00 | 0.00 | 82 | 1008.2 |
| 20260505164858 | 22 | 211 | 12.9 | 24.1 | 0.00 | 0.00 | 0.00 | 82 | 1008.1 |
| 20260505164822 | 22 | 238 | 12.9 | 24.1 | 0.00 | 0.00 | 0.00 | 82 | 1008.1 |
| 20260505164706 | 22 | 236 | 12.9 | 24.1 | 0.00 | 0.00 | 0.00 | 82 | 1008.0 |
| 20260505164549 | 22 | 221 | 12.9 | 24.1 | 0.00 | 0.00 | 0.00 | 82 | 1008.1 |
| 20260505164453 | 22 | 250 | 14.5 | 24.1 | 0.00 | 0.00 | 0.00 | 82 | 1008.1 |
| 20260505164416 | 22 | 228 | 17.7 | 24.1 | 0.00 | 0.00 | 0.00 | 82 | 1008.1 |
| 20260505164303 | 22 | 217 | 19.3 | 25.7 | 0.00 | 0.00 | 0.00 | 82 | 1008.0 |
| 20260505164205 | 22 | 223 | 17.7 | 27.4 | 0.00 | 0.00 | 0.00 | 82 | 1008.0 |
| 20260505164049 | 22 | 234 | 14.5 | 25.7 | 0.00 | 0.00 | 0.00 | 82 | 1008.0 |
| 20260505163954 | 22 | 231 | 14.5 | 25.7 | 0.00 | 0.00 | 0.00 | 82 | 1008.0 |
| 20260505163856 | 22 | 196 | 16.1 | 25.7 | 0.00 | 0.00 | 0.00 | 83 | 1008.1 |
| 20260505163800 | 22 | 229 | 16.1 | 25.7 | 0.00 | 0.00 | 0.00 | 83 | 1008.1 |
| 20260505163708 | 22 | 229 | 14.5 | 25.7 | 0.00 | 0.00 | 0.00 | 83 | 1008.1 |
| 20260505163550 | 22 | 232 | 14.5 | 24.1 | 0.00 | 0.00 | 0.00 | 83 | 1008.1 |
| 20260505163454 | 22 | 242 | 14.5 | 24.1 | 0.00 | 0.00 | 0.00 | 83 | 1008.1 |
| 20260505163359 | 22 | 260 | 12.9 | 24.1 | 0.00 | 0.00 | 0.00 | 83 | 1008.1 |
| 20260505163301 | 22 | 207 | 14.5 | 24.1 | 0.00 | 0.00 | 0.00 | 83 | 1008.1 |
| 20260505163225 | 22 | 227 | 14.5 | 24.1 | 0.00 | 0.00 | 0.00 | 83 | 1008.0 |
| 20260505163111 | 22 | 221 | 14.5 | 24.1 | 0.00 | 0.00 | 0.00 | 83 | 1008.0 |
| 20260505162948 | 22 | 225 | 14.5 | 24.1 | 0.00 | 0.00 | 0.00 | 83 | 1008.0 |
| 20260505162912 | 22 | 202 | 16.1 | 24.1 | 0.00 | 0.00 | 0.00 | 83 | 1008.0 |
| 20260505162754 | 22 | 219 | 16.1 | 24.1 | 0.00 | 0.00 | 0.00 | 83 | 1008.0 |
| 20260505162658 | 22 | 208 | 14.5 | 24.1 | 0.00 | 0.00 | 0.00 | 83 | 1008.0 |
| 20260505162601 | 22 | 223 | 16.1 | 24.1 | 0.00 | 0.00 | 0.00 | 83 | 1008.1 |
| 20260505162449 | 22 | 211 | 14.5 | 22.5 | 0.00 | 0.00 | 0.00 | 83 | 1008.1 |
| 20260505162413 | 22 | 205 | 12.9 | 22.5 | 0.00 | 0.00 | 0.00 | 83 | 1008.1 |
| 20260505162256 | 22 | 203 | 11.3 | 22.5 | 0.00 | 0.00 | 0.00 | 83 | 1008.0 |
| 20260505162201 | 22 | 225 | 12.9 | 22.5 | 0.00 | 0.00 | 0.00 | 83 | 1008.0 |
| 20260505162106 | 22 | 234 | 14.5 | 24.1 | 0.00 | 0.00 | 0.00 | 83 | 1008.1 |
| 20260505161949 | 22 | 238 | 14.5 | 24.1 | 0.00 | 0.00 | 0.00 | 83 | 1008.1 |
| 20260505161853 | 22 | 221 | 16.1 | 24.1 | 0.00 | 0.00 | 0.00 | 83 | 1008.1 |
| 20260505161800 | 22 | 216 | 14.5 | 24.1 | 0.00 | 0.00 | 0.00 | 84 | 1008.1 |
| 20260505161724 | 22 | 234 | 12.9 | 24.1 | 0.00 | 0.00 | 0.00 | 84 | 1008.2 |
| 20260505161606 | 22 | 211 | 12.9 | 24.1 | 0.00 | 0.00 | 0.00 | 84 | 1008.2 |
| 20260505161450 | 22 | 214 | 12.9 | 24.1 | 0.00 | 0.00 | 0.00 | 84 | 1008.2 |
| 20260505161413 | 22 | 221 | 14.5 | 24.1 | 0.00 | 0.00 | 0.00 | 84 | 1008.2 |
| 20260505161250 | 22 | 232 | 14.5 | 24.1 | 0.00 | 0.00 | 0.00 | 84 | 1008.2 |
| 20260505161158 | 22 | 214 | 9.7 | 17.7 | 0.00 | 0.00 | 0.00 | 84 | 1008.2 |
| 20260505161101 | 22 | 225 | 9.7 | 17.7 | 0.00 | 0.00 | 0.00 | 84 | 1008.3 |
| 20260505161005 | 21 | 216 | 11.3 | 17.7 | 0.00 | 0.00 | 0.00 | 84 | 1008.2 |
| 20260505160848 | 21 | 231 | 12.9 | 17.7 | 0.00 | 0.00 | 0.00 | 84 | 1008.2 |
| 20260505160751 | 21 | 234 | 12.9 | 17.7 | 0.00 | 0.00 | 0.00 | 84 | 1008.2 |
| 20260505160656 | 21 | 236 | 11.3 | 17.7 | 0.00 | 0.00 | 0.00 | 84 | 1008.3 |
| 20260505160603 | 21 | 238 | 11.3 | 17.7 | 0.00 | 0.00 | 0.00 | 84 | 1008.1 |
| 20260505160507 | 21 | 244 | 11.3 | 17.7 | 0.00 | 0.00 | 0.00 | 84 | 1008.2 |
| 20260505160350 | 21 | 209 | 11.3 | 19.3 | 0.00 | 0.00 | 0.00 | 85 | 1008.3 |
| 20260505160253 | 21 | 214 | 11.3 | 19.3 | 0.00 | 0.00 | 0.00 | 85 | 1008.3 |
| 20260505160157 | 21 | 225 | 12.9 | 19.3 | 0.00 | 0.00 | 0.00 | 85 | 1008.2 |
| 20260505153313 | 21 | 233 | 16.1 | 33.8 | 0.00 | 0.00 | 0.00 | 85 | 1008.2 |
| 20260505153150 | 21 | 225 | 14.5 | 33.8 | 0.00 | 0.00 | 0.00 | 85 | 1008.1 |
| 20260505153114 | 21 | 227 | 14.5 | 33.8 | 0.00 | 0.00 | 0.00 | 85 | 1008.1 |
| 20260505152957 | 21 | 224 | 17.7 | 33.8 | 0.00 | 0.00 | 0.00 | 85 | 1008.1 |
| 20260505152900 | 21 | 244 | 17.7 | 29.0 | 0.00 | 0.00 | 0.00 | 85 | 1008.1 |
| 20260505152804 | 21 | 234 | 17.7 | 29.0 | 0.00 | 0.00 | 0.00 | 85 | 1008.1 |
| 20260505152652 | 21 | 208 | 17.7 | 29.0 | 0.00 | 0.00 | 0.00 | 85 | 1008.1 |
| 20260505152555 | 21 | 221 | 17.7 | 29.0 | 0.00 | 0.00 | 0.00 | 85 | 1008.1 |
| 20260505152459 | 21 | 245 | 19.3 | 29.0 | 0.00 | 0.00 | 0.00 | 85 | 1008.0 |
| 20260505152402 | 21 | 242 | 17.7 | 29.0 | 0.00 | 0.00 | 0.00 | 85 | 1008.0 |
| 20260505152305 | 21 | 236 | 14.5 | 29.0 | 0.00 | 0.00 | 0.00 | 85 | 1008.0 |
| 20260505152150 | 21 | 216 | 16.1 | 29.0 | 0.00 | 0.00 | 0.00 | 85 | 1008.1 |
| 20260505152056 | 21 | 234 | 17.7 | 29.0 | 0.00 | 0.00 | 0.00 | 85 | 1008.1 |
| 20260505152001 | 21 | 227 | 17.7 | 29.0 | 0.00 | 0.00 | 0.00 | 86 | 1008.1 |
| 20260505151906 | 21 | 227 | 16.1 | 27.4 | 0.00 | 0.00 | 0.00 | 86 | 1008.1 |
| 20260505151750 | 21 | 232 | 17.7 | 27.4 | 0.00 | 0.00 | 0.00 | 86 | 1008.0 |
| 20260505151713 | 21 | 221 | 17.7 | 25.7 | 0.00 | 0.00 | 0.00 | 86 | 1008.0 |
| 20260505151555 | 21 | 227 | 17.7 | 25.7 | 0.00 | 0.00 | 0.00 | 86 | 1008.0 |
| 20260505151459 | 21 | 227 | 17.7 | 25.7 | 0.00 | 0.00 | 0.00 | 86 | 1008.1 |
| 20260505151407 | 21 | 232 | 14.5 | 25.7 | 0.00 | 0.00 | 0.00 | 86 | 1007.9 |
| 20260505151250 | 21 | 226 | 12.9 | 22.5 | 0.00 | 0.00 | 0.00 | 86 | 1008.0 |
| 20260505151154 | 21 | 244 | 14.5 | 22.5 | 0.00 | 0.00 | 0.00 | 86 | 1008.0 |
| 20260505151117 | 21 | 248 | 12.9 | 24.1 | 0.00 | 0.00 | 0.00 | 86 | 1008.0 |
| 20260505151000 | 21 | 237 | 12.9 | 24.1 | 0.00 | 0.00 | 0.00 | 86 | 1007.9 |
| 20260505150923 | 21 | 226 | 11.3 | 24.1 | 0.00 | 0.00 | 0.00 | 86 | 1007.9 |
| 20260505150826 | 21 | 212 | 12.9 | 24.1 | 0.00 | 0.00 | 0.00 | 86 | 1007.9 |
| 20260505150655 | 21 | 226 | 14.5 | 24.1 | 0.00 | 0.00 | 0.00 | 86 | 1007.8 |
| 20260505150617 | 21 | 224 | 14.5 | 24.1 | 0.00 | 0.00 | 0.00 | 86 | 1007.9 |
| 20260505150500 | 21 | 205 | 16.1 | 24.1 | 0.00 | 0.00 | 0.00 | 86 | 1007.7 |
| 20260505150404 | 21 | 234 | 16.1 | 24.1 | 0.00 | 0.00 | 0.00 | 86 | 1007.9 |
| 20260505150306 | 21 | 225 | 14.5 | 24.1 | 0.00 | 0.00 | 0.00 | 86 | 1007.7 |
| 20260505150150 | 21 | 241 | 14.5 | 24.1 | 0.00 | 0.00 | 0.00 | 86 | 1007.7 |
| 20260505150113 | 21 | 206 | 12.9 | 22.5 | 0.00 | 0.00 | 0.00 | 86 | 1007.7 |
| 20260505140607 | 20 | 197 | 12.9 | 30.6 | 0.00 | 0.00 | 0.00 | 87 | 1007.6 |
| 20260505140511 | 20 | 217 | 14.5 | 29.0 | 0.00 | 0.00 | 0.00 | 87 | 1007.7 |
| 20260505140352 | 20 | 241 | 19.3 | 29.0 | 0.00 | 0.00 | 0.00 | 87 | 1007.7 |
| 20260505140256 | 20 | 227 | 19.3 | 29.0 | 0.00 | 0.00 | 0.00 | 87 | 1007.6 |
| 20260505140159 | 20 | 233 | 16.1 | 29.0 | 0.00 | 0.00 | 0.00 | 87 | 1007.7 |
| 20260505130257 | 20 | 238 | 17.7 | 25.7 | 0.00 | 0.00 | 0.00 | 87 | 1007.0 |
| 20260505130200 | 20 | 201 | 17.7 | 22.5 | 0.00 | 0.00 | 0.00 | 87 | 1007.1 |
| 20260505130104 | 20 | 201 | 17.7 | 25.7 | 0.00 | 0.00 | 0.00 | 87 | 1007.0 |
| 20260505124949 | 20 | 194 | 16.1 | 27.4 | 0.00 | 0.00 | 0.00 | 87 | 1006.9 |
| 20260505124852 | 20 | 225 | 14.5 | 27.4 | 0.00 | 0.00 | 0.00 | 87 | 1006.9 |
| 20260505124754 | 20 | 220 | 16.1 | 27.4 | 0.00 | 0.00 | 0.00 | 87 | 1006.8 |
| 20260505124658 | 20 | 207 | 17.7 | 27.4 | 0.00 | 0.00 | 0.00 | 86 | 1006.8 |
| 20260505124605 | 20 | 211 | 19.3 | 27.4 | 0.00 | 0.00 | 0.00 | 86 | 1006.8 |
| 20260505124450 | 20 | 230 | 16.1 | 29.0 | 0.00 | 0.00 | 0.00 | 86 | 1006.8 |
| 20260505124413 | 20 | 206 | 12.9 | 27.4 | 0.00 | 0.00 | 0.00 | 86 | 1006.8 |
| 20260505124255 | 20 | 193 | 12.9 | 27.4 | 0.00 | 0.00 | 0.00 | 86 | 1006.7 |
| 20260505124159 | 20 | 194 | 12.9 | 27.4 | 0.00 | 0.00 | 0.00 | 86 | 1006.7 |
| 20260505124103 | 20 | 219 | 14.5 | 27.4 | 0.00 | 0.00 | 0.00 | 86 | 1006.7 |
| 20260505124027 | 20 | 195 | 14.5 | 29.0 | 0.00 | 0.00 | 0.00 | 86 | 1006.7 |
| 20260505123854 | 20 | 196 | 16.1 | 33.8 | 0.00 | 0.00 | 0.00 | 86 | 1006.7 |
| 20260505123817 | 20 | 224 | 17.7 | 33.8 | 0.00 | 0.00 | 0.00 | 86 | 1006.7 |
| 20260505123701 | 20 | 229 | 19.3 | 33.8 | 0.00 | 0.00 | 0.00 | 86 | 1006.7 |
| 20260505123604 | 20 | 225 | 17.7 | 33.8 | 0.00 | 0.00 | 0.00 | 86 | 1006.5 |
| 20260505123448 | 20 | 218 | 17.7 | 33.8 | 0.00 | 0.00 | 0.00 | 86 | 1006.6 |
| 20260505123411 | 20 | 238 | 16.1 | 33.8 | 0.00 | 0.00 | 0.00 | 86 | 1006.5 |
| 20260505123254 | 20 | 215 | 16.1 | 33.8 | 0.00 | 0.00 | 0.00 | 86 | 1006.5 |
| 20260505123201 | 20 | 214 | 16.1 | 33.8 | 0.00 | 0.00 | 0.00 | 86 | 1006.5 |
| 20260505123105 | 20 | 236 | 17.7 | 33.8 | 0.00 | 0.00 | 0.00 | 86 | 1006.5 |
| 20260505122949 | 20 | 225 | 16.1 | 29.0 | 0.00 | 0.00 | 0.00 | 86 | 1006.4 |
| 20260505122853 | 20 | 232 | 17.7 | 29.0 | 0.00 | 0.00 | 0.00 | 86 | 1006.4 |
| 20260505122756 | 20 | 198 | 17.7 | 29.0 | 0.00 | 0.00 | 0.00 | 86 | 1006.6 |
| 20260505122659 | 20 | 221 | 16.1 | 32.2 | 0.00 | 0.00 | 0.00 | 86 | 1006.5 |
| 20260505122548 | 20 | 221 | 16.1 | 32.2 | 0.00 | 0.00 | 0.00 | 86 | 1006.5 |
| 20260505122511 | 20 | 217 | 16.1 | 32.2 | 0.00 | 0.00 | 0.00 | 86 | 1006.5 |
| 20260505122348 | 20 | 217 | 16.1 | 30.6 | 0.00 | 0.00 | 0.00 | 86 | 1006.4 |
| 20260505122252 | 20 | 232 | 16.1 | 29.0 | 0.00 | 0.00 | 0.00 | 86 | 1006.4 |
| 20260505122214 | 20 | 207 | 16.1 | 29.0 | 0.00 | 0.00 | 0.00 | 86 | 1006.4 |
| 20260505122057 | 20 | 259 | 17.7 | 29.0 | 0.00 | 0.00 | 0.00 | 86 | 1006.4 |
| 20260505122005 | 20 | 237 | 20.9 | 29.0 | 0.00 | 0.00 | 0.00 | 86 | 1006.3 |
| 20260505121849 | 20 | 239 | 17.7 | 29.0 | 0.00 | 0.00 | 0.00 | 86 | 1006.4 |
| 20260505121752 | 20 | 211 | 16.1 | 25.7 | 0.00 | 0.00 | 0.00 | 86 | 1006.4 |
| 20260505121655 | 20 | 205 | 17.7 | 25.7 | 0.00 | 0.00 | 0.00 | 86 | 1006.3 |
| 20260505121558 | 20 | 213 | 16.1 | 25.7 | 0.00 | 0.00 | 0.00 | 86 | 1006.4 |
| 20260505121501 | 20 | 219 | 17.7 | 25.7 | 0.00 | 0.00 | 0.00 | 86 | 1006.3 |
| 20260505121349 | 20 | 234 | 20.9 | 29.0 | 0.00 | 0.00 | 0.00 | 86 | 1006.2 |
| 20260505121313 | 20 | 223 | 19.3 | 29.0 | 0.00 | 0.00 | 0.00 | 86 | 1006.2 |
| 20260505121149 | 20 | 209 | 17.7 | 32.2 | 0.00 | 0.00 | 0.00 | 86 | 1006.3 |
| 20260505121053 | 20 | 227 | 17.7 | 32.2 | 0.00 | 0.00 | 0.00 | 86 | 1006.3 |
| 20260505121017 | 20 | 215 | 16.1 | 32.2 | 0.00 | 0.00 | 0.00 | 86 | 1006.2 |
| 20260505120900 | 20 | 221 | 16.1 | 32.2 | 0.00 | 0.00 | 0.00 | 86 | 1006.3 |
| 20260505120805 | 20 | 224 | 14.5 | 32.2 | 0.00 | 0.00 | 0.00 | 86 | 1006.3 |
| 20260505120711 | 20 | 211 | 12.9 | 32.2 | 0.00 | 0.00 | 0.00 | 86 | 1006.3 |
| 20260505120553 | 20 | 206 | 12.9 | 33.8 | 0.00 | 0.00 | 0.00 | 86 | 1006.3 |
| 20260505120456 | 20 | 210 | 16.1 | 33.8 | 0.00 | 0.00 | 0.00 | 86 | 1006.4 |
| 20260505120400 | 20 | 222 | 19.3 | 33.8 | 0.00 | 0.00 | 0.00 | 86 | 1006.3 |
| 20260505120303 | 20 | 232 | 19.3 | 33.8 | 0.00 | 0.00 | 0.00 | 86 | 1006.3 |
| 20260505120227 | 20 | 218 | 14.5 | 33.8 | 0.00 | 0.00 | 0.00 | 86 | 1006.4 |
| 20260505120050 | 20 | 210 | 14.5 | 33.8 | 0.00 | 0.00 | 0.00 | 86 | 1006.3 |
| 20260505115957 | 20 | 213 | 17.7 | 33.8 | 0.00 | 0.00 | 0.00 | 86 | 1006.3 |
| 20260505115901 | 20 | 229 | 19.3 | 33.8 | 0.00 | 0.00 | 0.00 | 86 | 1006.3 |
| 20260505115825 | 20 | 225 | 20.9 | 33.8 | 0.00 | 0.00 | 0.00 | 86 | 1006.3 |
| 20260505115727 | 20 | 229 | 20.9 | 33.8 | 0.00 | 0.00 | 0.00 | 86 | 1006.3 |
| 20260505115610 | 20 | 237 | 16.1 | 30.6 | 0.00 | 0.00 | 0.00 | 86 | 1006.2 |
| 20260505115453 | 20 | 195 | 16.1 | 30.6 | 0.00 | 0.00 | 0.00 | 86 | 1006.2 |
| 20260505115416 | 20 | 209 | 16.1 | 30.6 | 0.00 | 0.00 | 0.00 | 86 | 1006.2 |
| 20260505115319 | 20 | 215 | 16.1 | 30.6 | 0.00 | 0.00 | 0.00 | 86 | 1006.3 |
| 20260505115205 | 20 | 222 | 16.1 | 30.6 | 0.00 | 0.00 | 0.00 | 86 | 1006.3 |
| 20260505115049 | 20 | 217 | 14.5 | 30.6 | 0.00 | 0.00 | 0.00 | 86 | 1006.2 |
| 20260505114953 | 20 | 222 | 16.1 | 30.6 | 0.00 | 0.00 | 0.00 | 86 | 1006.2 |
| 20260505114857 | 20 | 221 | 19.3 | 30.6 | 0.00 | 0.00 | 0.00 | 86 | 1006.2 |
| 20260505114800 | 20 | 232 | 19.3 | 30.6 | 0.00 | 0.00 | 0.00 | 86 | 1006.2 |
| 20260505114704 | 20 | 215 | 14.5 | 25.7 | 0.00 | 0.00 | 0.00 | 86 | 1006.1 |
| 20260505114612 | 20 | 225 | 14.5 | 25.7 | 0.00 | 0.00 | 0.00 | 86 | 1006.2 |
| 20260505114454 | 20 | 234 | 16.1 | 25.7 | 0.00 | 0.00 | 0.00 | 86 | 1006.2 |
| 20260505114358 | 20 | 211 | 16.1 | 25.7 | 0.00 | 0.00 | 0.00 | 86 | 1006.2 |
| 20260505114301 | 20 | 237 | 16.1 | 25.7 | 0.00 | 0.00 | 0.00 | 86 | 1006.2 |
| 20260505114205 | 20 | 222 | 16.1 | 25.7 | 0.00 | 0.00 | 0.00 | 86 | 1006.2 |
| 20260505114048 | 20 | 220 | 16.1 | 25.7 | 0.00 | 0.00 | 0.00 | 86 | 1006.1 |
| 20260505113956 | 20 | 209 | 16.1 | 25.7 | 0.00 | 0.00 | 0.00 | 86 | 1006.1 |
| 20260505113900 | 20 | 243 | 16.1 | 25.7 | 0.00 | 0.00 | 0.00 | 86 | 1006.1 |
| 20260505113805 | 20 | 201 | 16.1 | 30.6 | 0.00 | 0.00 | 0.00 | 86 | 1006.0 |
| 20260505113648 | 20 | 209 | 14.5 | 30.6 | 0.00 | 0.00 | 0.00 | 86 | 1006.1 |
| 20260505113551 | 20 | 211 | 14.5 | 30.6 | 0.00 | 0.00 | 0.00 | 86 | 1006.1 |
| 20260505113515 | 20 | 224 | 12.9 | 30.6 | 0.00 | 0.00 | 0.00 | 86 | 1006.1 |